Time,TemperatureF,DewpointF,PressureIn,WindDirection,WindDirectionDegrees,WindSpeedMPH,WindSpeedGustMPH,Humidity,HourlyPrecipIn,Conditions,Clouds,dailyrainin,SoftwareType,DateUTC
2013-02-20 00:00:00,19.0,17.8,29.98,SW,225,16.0,31.0,95,0.00,,,0.00,VWS V14.00,2013-02-20 05:00:00,
2013-02-20 00:02:00,19.0,17.8,29.98,WSW,247,26.0,31.0,95,0.00,,,0.00,VWS V14.00,2013-02-20 05:02:00,
2013-02-20 00:05:00,19.0,18.0,29.97,SW,225,20.0,28.0,96,0.00,,,0.00,VWS V14.00,2013-02-20 05:05:00,
2013-02-20 00:06:00,19.0,18.0,29.97,WSW,247,31.0,31.0,96,0.00,,,0.00,VWS V14.00,2013-02-20 05:06:00,
2013-02-20 00:07:00,18.0,16.6,29.97,WSW,247,24.0,31.0,94,0.00,,,0.00,VWS V14.00,2013-02-20 05:07:00,
2013-02-20 00:11:00,19.0,18.3,29.97,West,270,15.0,29.0,97,0.00,,,0.00,VWS V14.00,2013-02-20 05:11:00,
2013-02-20 00:12:00,18.0,16.6,29.97,SW,225,24.0,29.0,94,0.00,,,0.00,VWS V14.00,2013-02-20 05:12:00,
2013-02-20 00:16:00,19.0,18.0,29.98,WSW,247,29.0,29.0,96,0.00,,,0.00,VWS V14.00,2013-02-20 05:16:00,
2013-02-20 00:17:00,19.0,17.6,29.98,SW,225,26.0,29.0,94,0.00,,,0.00,VWS V14.00,2013-02-20 05:17:00,
2013-02-20 00:19:00,19.0,17.6,29.98,SW,225,20.0,26.0,94,0.00,,,0.00,VWS V14.00,2013-02-20 05:19:00,
2013-02-20 00:22:00,19.0,17.6,29.98,SW,225,18.0,29.0,94,0.00,,,0.00,VWS V14.00,2013-02-20 05:22:00,
2013-02-20 00:23:00,19.0,17.6,29.98,WSW,247,26.0,28.0,94,0.00,,,0.00,VWS V14.00,2013-02-20 05:23:00,
2013-02-20 00:27:00,18.0,15.8,29.98,WSW,247,21.0,33.0,91,0.00,,,0.00,VWS V14.00,2013-02-20 05:27:00,
2013-02-20 00:28:00,18.0,16.3,29.98,WSW,247,24.0,30.0,93,0.00,,,0.00,VWS V14.00,2013-02-20 05:28:00,
2013-02-20 00:29:00,18.0,16.3,29.98,WSW,247,18.0,30.0,93,0.00,,,0.00,VWS V14.00,2013-02-20 05:29:00,
2013-02-20 00:32:00,18.0,16.6,29.98,West,270,22.0,32.0,94,0.00,,,0.00,VWS V14.00,2013-02-20 05:32:00,
2013-02-20 00:33:00,18.0,16.8,29.98,West,270,25.0,29.0,95,0.00,,,0.00,VWS V14.00,2013-02-20 05:33:00,
2013-02-20 00:37:00,18.0,16.8,29.98,WSW,247,28.0,34.0,95,0.00,,,0.00,VWS V14.00,2013-02-20 05:37:00,
2013-02-20 00:39:00,18.0,16.8,29.98,West,270,20.0,27.0,96,0.00,,,0.00,VWS V14.00,2013-02-20 05:39:00,
2013-02-20 00:41:00,18.0,17.0,29.98,WSW,247,23.0,27.0,96,0.00,,,0.00,VWS V14.00,2013-02-20 05:41:00,
2013-02-20 00:43:00,18.0,17.3,29.98,West,270,24.0,26.0,97,0.00,,,0.00,VWS V14.00,2013-02-20 05:43:00,
2013-02-20 00:44:00,18.0,17.3,29.98,WSW,247,26.0,26.0,97,0.00,,,0.00,VWS V14.00,2013-02-20 05:44:00,
2013-02-20 00:46:00,18.0,17.3,29.98,SW,225,14.0,26.0,97,0.00,,,0.00,VWS V14.00,2013-02-20 05:46:00,
2013-02-20 00:47:00,19.0,18.5,29.98,WSW,247,24.0,26.0,98,0.00,,,0.00,VWS V14.00,2013-02-20 05:47:00,
2013-02-20 00:49:00,18.0,17.3,29.98,WSW,247,23.0,34.0,97,0.00,,,0.00,VWS V14.00,2013-02-20 05:49:00,
2013-02-20 00:51:00,18.0,17.8,29.98,WSW,247,27.0,34.0,99,0.00,,,0.00,VWS V14.00,2013-02-20 05:51:00,
2013-02-20 00:52:00,18.0,17.8,29.98,WSW,247,29.0,34.0,99,0.00,,,0.00,VWS V14.00,2013-02-20 05:52:00,
2013-02-20 00:53:00,18.0,17.5,29.98,WSW,247,34.0,34.0,98,0.00,,,0.00,VWS V14.00,2013-02-20 05:53:00,
2013-02-20 00:54:00,18.0,17.8,29.98,West,270,21.0,34.0,99,0.00,,,0.00,VWS V14.00,2013-02-20 05:54:00,
2013-02-20 00:57:00,18.0,18.0,29.98,WSW,247,21.0,34.0,100,0.00,,,0.00,VWS V14.00,2013-02-20 05:57:00,
2013-02-20 00:58:00,18.0,17.8,29.98,SW,225,20.0,30.0,99,0.00,,,0.00,VWS V14.00,2013-02-20 05:58:00,
2013-02-20 01:00:00,18.0,17.8,29.98,WSW,247,28.0,31.0,99,0.00,,,0.00,VWS V14.00,2013-02-20 06:00:00,
2013-02-20 01:02:00,18.0,17.8,29.98,SW,225,21.0,33.0,99,0.00,,,0.00,VWS V14.00,2013-02-20 06:02:00,
2013-02-20 01:03:00,18.0,18.0,29.98,West,270,20.0,29.0,100,0.00,,,0.00,VWS V14.00,2013-02-20 06:03:00,
2013-02-20 01:04:00,18.0,18.0,29.98,WSW,247,26.0,31.0,100,0.00,,,0.00,VWS V14.00,2013-02-20 06:04:00,
2013-02-20 01:05:00,18.0,18.0,29.98,West,270,27.0,31.0,100,0.00,,,0.00,VWS V14.00,2013-02-20 06:05:00,
2013-02-20 01:08:00,18.0,18.0,29.98,WSW,247,24.0,26.0,100,0.00,,,0.00,VWS V14.00,2013-02-20 06:08:00,
2013-02-20 01:09:00,18.0,18.0,29.98,SW,225,18.0,30.0,100,0.00,,,0.00,VWS V14.00,2013-02-20 06:09:00,
2013-02-20 01:12:00,18.0,18.0,29.98,WSW,247,20.0,30.0,100,0.00,,,0.00,VWS V14.00,2013-02-20 06:12:00,
2013-02-20 01:14:00,18.0,18.0,29.97,West,270,17.0,29.0,100,0.00,,,0.00,VWS V14.00,2013-02-20 06:14:00,
2013-02-20 01:16:00,18.0,18.0,29.97,WSW,247,21.0,29.0,100,0.00,,,0.00,VWS V14.00,2013-02-20 06:16:00,
2013-02-20 01:17:00,18.0,18.0,29.97,WSW,247,23.0,29.0,100,0.00,,,0.00,VWS V14.00,2013-02-20 06:17:00,
2013-02-20 01:19:00,18.0,18.0,29.97,West,270,23.0,31.0,100,0.00,,,0.00,VWS V14.00,2013-02-20 06:19:00,
2013-02-20 01:20:00,18.0,18.0,29.97,WSW,247,24.0,34.0,100,0.00,,,0.00,VWS V14.00,2013-02-20 06:20:00,
2013-02-20 01:22:00,17.0,17.0,29.97,WSW,247,25.0,34.0,100,0.00,,,0.00,VWS V14.00,2013-02-20 06:22:00,
2013-02-20 01:23:00,17.0,17.0,29.97,WSW,247,24.0,28.0,100,0.00,,,0.00,VWS V14.00,2013-02-20 06:23:00,
2013-02-20 01:25:00,18.0,18.0,29.98,WSW,247,24.0,32.0,100,0.00,,,0.00,VWS V14.00,2013-02-20 06:25:00,
2013-02-20 01:26:00,18.0,18.0,29.98,WSW,247,21.0,32.0,100,0.00,,,0.00,VWS V14.00,2013-02-20 06:26:00,
2013-02-20 01:27:00,18.0,18.0,29.98,WSW,247,21.0,32.0,100,0.00,,,0.00,VWS V14.00,2013-02-20 06:27:00,
2013-02-20 01:30:00,18.0,18.0,29.98,WSW,247,17.0,29.0,100,0.00,,,0.00,VWS V14.00,2013-02-20 06:30:00,
2013-02-20 01:31:00,18.0,18.0,29.98,WSW,247,22.0,30.0,100,0.00,,,0.00,VWS V14.00,2013-02-20 06:31:00,
2013-02-20 01:32:00,18.0,18.0,29.98,WSW,247,18.0,30.0,100,0.00,,,0.00,VWS V14.00,2013-02-20 06:32:00,
2013-02-20 01:36:00,17.0,17.0,29.98,WSW,247,30.0,32.0,100,0.00,,,0.00,VWS V14.00,2013-02-20 06:36:00,
2013-02-20 01:37:00,17.0,17.0,29.98,SW,225,26.0,32.0,100,0.00,,,0.00,VWS V14.00,2013-02-20 06:37:00,
2013-02-20 01:42:00,18.0,18.0,29.98,WSW,247,23.0,28.0,100,0.00,,,0.00,VWS V14.00,2013-02-20 06:42:00,
2013-02-20 01:43:00,18.0,18.0,29.98,SW,225,14.0,22.0,100,0.00,,,0.00,VWS V14.00,2013-02-20 06:43:00,
2013-02-20 01:47:00,18.0,18.0,29.99,WSW,247,22.0,30.0,100,0.00,,,0.00,VWS V14.00,2013-02-20 06:47:00,
2013-02-20 01:48:00,18.0,18.0,29.99,West,270,18.0,25.0,100,0.00,,,0.00,VWS V14.00,2013-02-20 06:48:00,
2013-02-20 01:50:00,18.0,18.0,29.99,WSW,247,28.0,28.0,100,0.00,,,0.00,VWS V14.00,2013-02-20 06:50:00,
2013-02-20 01:54:00,18.0,18.0,29.98,WSW,247,19.0,31.0,100,0.00,,,0.00,VWS V14.00,2013-02-20 06:54:00,
2013-02-20 01:55:00,18.0,18.0,29.98,WSW,247,21.0,31.0,100,0.00,,,0.00,VWS V14.00,2013-02-20 06:55:00,
2013-02-20 01:56:00,18.0,18.0,29.98,WSW,247,27.0,31.0,100,0.00,,,0.00,VWS V14.00,2013-02-20 06:56:00,
2013-02-20 02:00:00,18.0,18.0,29.98,West,270,18.0,28.0,100,0.00,,,0.00,VWS V14.00,2013-02-20 07:00:00,
2013-02-20 02:01:00,18.0,18.0,29.98,West,270,22.0,29.0,100,0.00,,,0.00,VWS V14.00,2013-02-20 07:01:00,
2013-02-20 02:02:00,18.0,18.0,29.98,SW,225,14.0,29.0,100,0.00,,,0.00,VWS V14.00,2013-02-20 07:02:00,
2013-02-20 02:05:00,18.0,18.0,29.99,West,270,18.0,28.0,100,0.00,,,0.00,VWS V14.00,2013-02-20 07:05:00,
2013-02-20 02:06:00,18.0,18.0,29.99,West,270,21.0,29.0,100,0.00,,,0.00,VWS V14.00,2013-02-20 07:06:00,
2013-02-20 02:07:00,18.0,18.0,29.99,SW,225,17.0,29.0,100,0.00,,,0.00,VWS V14.00,2013-02-20 07:07:00,
2013-02-20 02:09:00,18.0,18.0,29.99,WSW,247,27.0,29.0,100,0.00,,,0.00,VWS V14.00,2013-02-20 07:09:00,
2013-02-20 02:10:00,18.0,18.0,29.99,West,270,21.0,29.0,100,0.00,,,0.00,VWS V14.00,2013-02-20 07:10:00,
2013-02-20 02:12:00,18.0,18.0,29.99,WSW,247,21.0,29.0,100,0.00,,,0.00,VWS V14.00,2013-02-20 07:12:00,
2013-02-20 02:13:00,18.0,18.0,29.99,WSW,247,26.0,30.0,100,0.00,,,0.00,VWS V14.00,2013-02-20 07:13:00,
2013-02-20 02:16:00,18.0,18.0,29.98,WSW,247,23.0,31.0,100,0.00,,,0.00,VWS V14.00,2013-02-20 07:16:00,
2013-02-20 02:17:00,18.0,18.0,29.98,WSW,247,26.0,31.0,100,0.00,,,0.00,VWS V14.00,2013-02-20 07:17:00,
2013-02-20 02:19:00,18.0,18.0,29.98,WSW,247,20.0,30.0,100,0.00,,,0.00,VWS V14.00,2013-02-20 07:19:00,
2013-02-20 02:22:00,18.0,18.0,29.98,WSW,247,17.0,31.0,100,0.00,,,0.00,VWS V14.00,2013-02-20 07:22:00,
2013-02-20 02:23:00,18.0,18.0,29.98,West,270,18.0,23.0,100,0.00,,,0.00,VWS V14.00,2013-02-20 07:23:00,
2013-02-20 02:25:00,18.0,18.0,29.99,WSW,247,23.0,27.0,100,0.00,,,0.00,VWS V14.00,2013-02-20 07:25:00,
2013-02-20 02:27:00,18.0,18.0,29.99,SSW,202,15.0,28.0,100,0.00,,,0.00,VWS V14.00,2013-02-20 07:27:00,
2013-02-20 02:28:00,18.0,18.0,29.99,WSW,247,22.0,26.0,100,0.00,,,0.00,VWS V14.00,2013-02-20 07:28:00,
2013-02-20 02:32:00,18.0,18.0,29.99,WSW,247,28.0,29.0,100,0.00,,,0.00,VWS V14.00,2013-02-20 07:32:00,
2013-02-20 02:33:00,18.0,18.0,29.99,WSW,247,28.0,31.0,100,0.00,,,0.00,VWS V14.00,2013-02-20 07:33:00,
2013-02-20 02:38:00,18.0,18.0,29.99,WSW,247,23.0,27.0,100,0.00,,,0.00,VWS V14.00,2013-02-20 07:38:00,
2013-02-20 02:39:00,18.0,18.0,29.99,WSW,247,22.0,28.0,100,0.00,,,0.00,VWS V14.00,2013-02-20 07:39:00,
2013-02-20 02:43:00,18.0,18.0,29.99,WSW,247,20.0,25.0,100,0.00,,,0.00,VWS V14.00,2013-02-20 07:43:00,
2013-02-20 02:44:00,18.0,18.0,29.98,WSW,247,26.0,28.0,100,0.00,,,0.00,VWS V14.00,2013-02-20 07:44:00,
2013-02-20 02:47:00,18.0,18.0,29.98,West,270,24.0,29.0,100,0.00,,,0.00,VWS V14.00,2013-02-20 07:47:00,
2013-02-20 02:49:00,18.0,18.0,29.98,WSW,247,23.0,27.0,100,0.00,,,0.00,VWS V14.00,2013-02-20 07:49:00,
2013-02-20 02:50:00,18.0,18.0,29.98,WSW,247,24.0,31.0,100,0.00,,,0.00,VWS V14.00,2013-02-20 07:50:00,
2013-02-20 02:52:00,18.0,18.0,29.98,WSW,247,25.0,31.0,100,0.00,,,0.00,VWS V14.00,2013-02-20 07:52:00,
2013-02-20 02:54:00,18.0,18.0,29.99,SW,225,18.0,26.0,100,0.00,,,0.00,VWS V14.00,2013-02-20 07:54:00,
2013-02-20 02:55:00,18.0,18.0,29.99,WSW,247,27.0,28.0,100,0.00,,,0.00,VWS V14.00,2013-02-20 07:55:00,
2013-02-20 02:59:00,18.0,18.0,29.99,West,270,23.0,31.0,100,0.00,,,0.00,VWS V14.00,2013-02-20 07:59:00,
2013-02-20 03:00:00,18.0,18.0,29.99,SW,225,24.0,31.0,100,0.00,,,0.00,VWS V14.00,2013-02-20 08:00:00,
2013-02-20 03:01:00,18.0,18.0,29.99,West,270,21.0,31.0,100,0.00,,,0.00,VWS V14.00,2013-02-20 08:01:00,
2013-02-20 03:05:00,18.0,18.0,29.98,WSW,247,26.0,29.0,100,0.00,,,0.00,VWS V14.00,2013-02-20 08:05:00,
2013-02-20 03:06:00,18.0,18.0,29.98,SW,225,21.0,29.0,100,0.00,,,0.00,VWS V14.00,2013-02-20 08:06:00,
2013-02-20 03:07:00,18.0,18.0,29.98,West,270,25.0,29.0,100,0.00,,,0.00,VWS V14.00,2013-02-20 08:07:00,
2013-02-20 03:11:00,18.0,18.0,29.98,WSW,247,24.0,28.0,100,0.00,,,0.00,VWS V14.00,2013-02-20 08:11:00,
2013-02-20 03:13:00,19.0,19.0,29.98,WSW,247,21.0,26.0,100,0.00,,,0.00,VWS V14.00,2013-02-20 08:13:00,
2013-02-20 03:16:00,19.0,19.0,29.98,WSW,247,25.0,31.0,100,0.00,,,0.00,VWS V14.00,2013-02-20 08:16:00,
2013-02-20 03:17:00,18.0,18.0,29.98,WSW,247,26.0,31.0,100,0.00,,,0.00,VWS V14.00,2013-02-20 08:17:00,
2013-02-20 03:20:00,18.0,18.0,29.98,SW,225,21.0,34.0,100,0.00,,,0.00,VWS V14.00,2013-02-20 08:20:00,
2013-02-20 03:22:00,18.0,18.0,29.98,WSW,247,24.0,34.0,100,0.00,,,0.00,VWS V14.00,2013-02-20 08:22:00,
2013-02-20 03:23:00,18.0,18.0,29.98,SW,225,24.0,29.0,100,0.00,,,0.00,VWS V14.00,2013-02-20 08:23:00,
2013-02-20 03:26:00,18.0,18.0,29.99,WSW,247,20.0,31.0,100,0.00,,,0.00,VWS V14.00,2013-02-20 08:26:00,
2013-02-20 03:28:00,18.0,18.0,29.99,WSW,247,22.0,22.0,100,0.00,,,0.00,VWS V14.00,2013-02-20 08:28:00,
2013-02-20 03:32:00,19.0,19.0,29.99,WSW,247,25.0,25.0,100,0.00,,,0.00,VWS V14.00,2013-02-20 08:32:00,
2013-02-20 03:33:00,18.0,18.0,29.99,WSW,247,20.0,26.0,100,0.00,,,0.00,VWS V14.00,2013-02-20 08:33:00,
2013-02-20 03:34:00,19.0,19.0,30.00,West,270,20.0,28.0,100,0.00,,,0.00,VWS V14.00,2013-02-20 08:34:00,
2013-02-20 03:37:00,19.0,19.0,30.00,WSW,247,21.0,26.0,100,0.00,,,0.00,VWS V14.00,2013-02-20 08:37:00,
2013-02-20 03:39:00,19.0,19.0,30.00,WSW,247,26.0,31.0,100,0.00,,,0.00,VWS V14.00,2013-02-20 08:39:00,
2013-02-20 03:40:00,19.0,19.0,30.00,SW,225,28.0,31.0,100,0.00,,,0.00,VWS V14.00,2013-02-20 08:40:00,
2013-02-20 03:42:00,19.0,19.0,30.00,WSW,247,24.0,31.0,100,0.00,,,0.00,VWS V14.00,2013-02-20 08:42:00,
2013-02-20 03:43:00,19.0,19.0,30.00,SW,225,25.0,31.0,100,0.00,,,0.00,VWS V14.00,2013-02-20 08:43:00,
2013-02-20 03:46:00,19.0,19.0,29.97,West,270,26.0,34.0,100,0.00,,,0.00,VWS V14.00,2013-02-20 08:46:00,
2013-02-20 03:48:00,19.0,19.0,29.97,WSW,247,26.0,29.0,100,0.00,,,0.00,VWS V14.00,2013-02-20 08:48:00,
2013-02-20 03:49:00,18.0,18.0,29.97,WSW,247,24.0,32.0,100,0.00,,,0.00,VWS V14.00,2013-02-20 08:49:00,
2013-02-20 03:53:00,19.0,19.0,29.97,WSW,247,20.0,26.0,100,0.00,,,0.00,VWS V14.00,2013-02-20 08:53:00,
2013-02-20 03:54:00,19.0,19.0,30.00,WSW,247,23.0,26.0,100,0.00,,,0.00,VWS V14.00,2013-02-20 08:54:00,
2013-02-20 03:58:00,19.0,19.0,30.00,WSW,247,18.0,27.0,100,0.00,,,0.00,VWS V14.00,2013-02-20 08:58:00,
2013-02-20 03:59:00,19.0,19.0,30.00,West,270,21.0,28.0,100,0.00,,,0.00,VWS V14.00,2013-02-20 08:59:00,
2013-02-20 04:00:00,19.0,19.0,30.00,West,270,25.0,28.0,100,0.00,,,0.00,VWS V14.00,2013-02-20 09:00:00,
2013-02-20 04:03:00,19.0,19.0,30.00,West,270,17.0,29.0,100,0.00,,,0.00,VWS V14.00,2013-02-20 09:03:00,
2013-02-20 04:04:00,19.0,19.0,29.99,West,270,17.0,29.0,100,0.00,,,0.00,VWS V14.00,2013-02-20 09:04:00,
2013-02-20 04:05:00,19.0,19.0,29.99,WSW,247,23.0,29.0,100,0.00,,,0.00,VWS V14.00,2013-02-20 09:05:00,
2013-02-20 04:07:00,18.0,18.0,29.99,WSW,247,23.0,31.0,100,0.00,,,0.00,VWS V14.00,2013-02-20 09:07:00,
2013-02-20 04:10:00,19.0,19.0,29.99,WSW,247,27.0,30.0,100,0.00,,,0.00,VWS V14.00,2013-02-20 09:10:00,
2013-02-20 04:11:00,18.0,18.0,29.99,West,270,23.0,30.0,100,0.00,,,0.00,VWS V14.00,2013-02-20 09:11:00,
2013-02-20 04:12:00,18.0,18.0,29.99,WSW,247,24.0,31.0,100,0.00,,,0.00,VWS V14.00,2013-02-20 09:12:00,
2013-02-20 04:15:00,19.0,19.0,30.00,SW,225,18.0,30.0,100,0.00,,,0.00,VWS V14.00,2013-02-20 09:15:00,
2013-02-20 04:16:00,19.0,19.0,30.00,WSW,247,24.0,31.0,100,0.00,,,0.00,VWS V14.00,2013-02-20 09:16:00,
2013-02-20 04:17:00,19.0,19.0,30.00,WSW,247,28.0,31.0,100,0.00,,,0.00,VWS V14.00,2013-02-20 09:17:00,
2013-02-20 04:21:00,19.0,19.0,30.00,WSW,247,26.0,31.0,100,0.00,,,0.00,VWS V14.00,2013-02-20 09:21:00,
2013-02-20 04:22:00,19.0,19.0,30.00,West,270,17.0,31.0,100,0.00,,,0.00,VWS V14.00,2013-02-20 09:22:00,
2013-02-20 04:27:00,19.0,19.0,30.00,WSW,247,29.0,30.0,100,0.00,,,0.00,VWS V14.00,2013-02-20 09:27:00,
2013-02-20 04:28:00,19.0,19.0,30.00,WSW,247,18.0,26.0,100,0.00,,,0.00,VWS V14.00,2013-02-20 09:28:00,
2013-02-20 04:32:00,18.0,18.0,30.00,WSW,247,27.0,31.0,100,0.00,,,0.00,VWS V14.00,2013-02-20 09:32:00,
2013-02-20 04:33:00,19.0,19.0,30.00,West,270,29.0,33.0,100,0.00,,,0.00,VWS V14.00,2013-02-20 09:33:00,
2013-02-20 04:34:00,19.0,19.0,30.01,West,270,19.0,33.0,100,0.00,,,0.00,VWS V14.00,2013-02-20 09:34:00,
2013-02-20 04:35:00,19.0,19.0,30.01,WSW,247,18.0,33.0,100,0.00,,,0.00,VWS V14.00,2013-02-20 09:35:00,
2013-02-20 04:39:00,19.0,19.0,30.01,West,270,22.0,34.0,100,0.00,,,0.00,VWS V14.00,2013-02-20 09:39:00,
2013-02-20 04:40:00,19.0,19.0,30.01,WSW,247,28.0,34.0,100,0.00,,,0.00,VWS V14.00,2013-02-20 09:40:00,
2013-02-20 04:44:00,19.0,19.0,30.00,West,270,26.0,29.0,100,0.00,,,0.00,VWS V14.00,2013-02-20 09:44:00,
2013-02-20 04:45:00,18.0,18.0,30.00,WSW,247,26.0,29.0,100,0.00,,,0.00,VWS V14.00,2013-02-20 09:45:00,
2013-02-20 04:46:00,18.0,19.0,30.00,WSW,247,29.0,29.0,100,0.00,,,0.00,VWS V14.00,2013-02-20 09:46:00,
2013-02-20 04:50:00,19.0,19.0,30.00,WSW,247,23.0,29.0,100,0.00,,,0.00,VWS V14.00,2013-02-20 09:50:00,
2013-02-20 04:51:00,19.0,19.0,30.00,WSW,247,25.0,29.0,100,0.00,,,0.00,VWS V14.00,2013-02-20 09:51:00,
2013-02-20 04:55:00,19.0,19.0,30.00,West,270,20.0,31.0,100,0.00,,,0.00,VWS V14.00,2013-02-20 09:55:00,
2013-02-20 04:57:00,19.0,19.0,30.00,WSW,247,23.0,31.0,100,0.00,,,0.00,VWS V14.00,2013-02-20 09:57:00,
2013-02-20 04:58:00,19.0,19.0,30.00,WSW,247,20.0,27.0,100,0.00,,,0.00,VWS V14.00,2013-02-20 09:58:00,
2013-02-20 05:01:00,19.0,19.0,30.00,WSW,247,20.0,34.0,100,0.00,,,0.00,VWS V14.00,2013-02-20 10:01:00,
2013-02-20 05:02:00,19.0,19.0,30.00,West,270,21.0,21.0,100,0.00,,,0.00,VWS V14.00,2013-02-20 10:02:00,
2013-02-20 05:03:00,19.0,19.0,30.00,West,270,23.0,26.0,100,0.00,,,0.00,VWS V14.00,2013-02-20 10:03:00,
2013-02-20 05:06:00,19.0,19.0,30.02,SW,225,14.0,28.0,100,0.00,,,0.00,VWS V14.00,2013-02-20 10:06:00,
2013-02-20 05:07:00,19.0,19.0,30.02,WSW,247,22.0,28.0,100,0.00,,,0.00,VWS V14.00,2013-02-20 10:07:00,
2013-02-20 05:08:00,19.0,19.0,30.02,WSW,247,28.0,31.0,100,0.00,,,0.00,VWS V14.00,2013-02-20 10:08:00,
2013-02-20 05:11:00,19.0,19.0,30.02,WSW,247,23.0,34.0,100,0.00,,,0.00,VWS V14.00,2013-02-20 10:11:00,
2013-02-20 05:12:00,19.0,19.0,30.02,West,270,21.0,34.0,100,0.00,,,0.00,VWS V14.00,2013-02-20 10:12:00,
2013-02-20 05:14:00,19.0,19.0,30.01,WSW,247,20.0,25.0,100,0.00,,,0.00,VWS V14.00,2013-02-20 10:14:00,
2013-02-20 05:17:00,19.0,19.0,30.01,WSW,247,25.0,34.0,100,0.00,,,0.00,VWS V14.00,2013-02-20 10:17:00,
2013-02-20 05:19:00,19.0,19.0,30.01,WSW,247,24.0,28.0,100,0.00,,,0.00,VWS V14.00,2013-02-20 10:19:00,
2013-02-20 05:20:00,19.0,19.0,30.01,West,270,28.0,28.0,100,0.00,,,0.00,VWS V14.00,2013-02-20 10:20:00,
2013-02-20 05:22:00,19.0,19.0,30.01,WSW,247,24.0,31.0,100,0.00,,,0.00,VWS V14.00,2013-02-20 10:22:00,
2013-02-20 05:25:00,19.0,19.0,30.02,West,270,29.0,31.0,100,0.00,,,0.00,VWS V14.00,2013-02-20 10:25:00,
2013-02-20 05:27:00,19.0,19.0,30.02,West,270,21.0,31.0,100,0.00,,,0.00,VWS V14.00,2013-02-20 10:27:00,
2013-02-20 05:28:00,19.0,19.0,30.02,WSW,247,25.0,27.0,100,0.00,,,0.00,VWS V14.00,2013-02-20 10:28:00,
2013-02-20 05:31:00,19.0,19.0,30.02,WSW,247,21.0,31.0,100,0.00,,,0.00,VWS V14.00,2013-02-20 10:31:00,
2013-02-20 05:32:00,19.0,19.0,30.02,WSW,247,22.0,31.0,100,0.00,,,0.00,VWS V14.00,2013-02-20 10:32:00,
2013-02-20 05:34:00,19.0,19.0,30.02,WSW,247,22.0,27.0,100,0.00,,,0.00,VWS V14.00,2013-02-20 10:34:00,
2013-02-20 05:35:00,19.0,19.0,30.02,WSW,247,18.0,28.0,100,0.00,,,0.00,VWS V14.00,2013-02-20 10:35:00,
2013-02-20 05:37:00,19.0,19.0,30.02,WSW,247,21.0,28.0,100,0.00,,,0.00,VWS V14.00,2013-02-20 10:37:00,
2013-02-20 05:41:00,19.0,19.0,30.02,West,270,15.0,33.0,100,0.00,,,0.00,VWS V14.00,2013-02-20 10:41:00,
2013-02-20 05:43:00,19.0,19.0,30.02,WSW,247,23.0,30.0,100,0.00,,,0.00,VWS V14.00,2013-02-20 10:43:00,
2013-02-20 05:46:00,19.0,19.0,30.02,West,270,16.0,30.0,100,0.00,,,0.00,VWS V14.00,2013-02-20 10:46:00,
2013-02-20 05:47:00,19.0,19.0,30.02,WSW,247,23.0,33.0,100,0.00,,,0.00,VWS V14.00,2013-02-20 10:47:00,
2013-02-20 05:48:00,19.0,19.0,30.02,SW,225,24.0,28.0,100,0.00,,,0.00,VWS V14.00,2013-02-20 10:48:00,
2013-02-20 05:50:00,19.0,19.0,30.02,West,270,24.0,32.0,100,0.00,,,0.00,VWS V14.00,2013-02-20 10:50:00,
2013-02-20 05:52:00,19.0,19.0,30.02,SW,225,21.0,32.0,100,0.00,,,0.00,VWS V14.00,2013-02-20 10:52:00,
2013-02-20 05:53:00,19.0,19.0,30.02,WSW,247,20.0,26.0,100,0.00,,,0.00,VWS V14.00,2013-02-20 10:53:00,
2013-02-20 05:56:00,19.0,19.0,30.02,WSW,247,18.0,27.0,100,0.00,,,0.00,VWS V14.00,2013-02-20 10:56:00,
2013-02-20 05:57:00,19.0,19.0,30.02,WSW,247,23.0,23.0,100,0.00,,,0.00,VWS V14.00,2013-02-20 10:57:00,
2013-02-20 05:59:00,19.0,19.0,30.02,WSW,247,21.0,25.0,100,0.00,,,0.00,VWS V14.00,2013-02-20 10:59:00,
2013-02-20 06:02:00,19.0,19.0,30.02,West,270,29.0,29.0,100,0.00,,,0.00,VWS V14.00,2013-02-20 11:02:00,
2013-02-20 06:03:00,19.0,19.0,30.02,WSW,247,25.0,29.0,100,0.00,,,0.00,VWS V14.00,2013-02-20 11:03:00,
2013-02-20 06:04:00,19.0,19.0,30.03,WSW,247,18.0,29.0,100,0.00,,,0.00,VWS V14.00,2013-02-20 11:04:00,
2013-02-20 06:05:00,19.0,19.0,30.03,West,270,22.0,29.0,100,0.00,,,0.00,VWS V14.00,2013-02-20 11:05:00,
2013-02-20 06:07:00,19.0,19.0,30.03,WSW,247,28.0,30.0,100,0.00,,,0.00,VWS V14.00,2013-02-20 11:07:00,
2013-02-20 06:09:00,19.0,19.0,30.03,WSW,247,23.0,28.0,100,0.00,,,0.00,VWS V14.00,2013-02-20 11:09:00,
2013-02-20 06:11:00,19.0,19.0,30.03,West,270,23.0,28.0,100,0.00,,,0.00,VWS V14.00,2013-02-20 11:11:00,
2013-02-20 06:12:00,19.0,19.0,30.03,WSW,247,20.0,29.0,100,0.00,,,0.00,VWS V14.00,2013-02-20 11:12:00,
2013-02-20 06:15:00,18.0,18.0,30.02,SW,225,14.0,30.0,100,0.00,,,0.00,VWS V14.00,2013-02-20 11:15:00,
2013-02-20 06:16:00,19.0,19.0,30.02,WSW,247,17.0,31.0,100,0.00,,,0.00,VWS V14.00,2013-02-20 11:16:00,
2013-02-20 06:17:00,19.0,19.0,30.02,West,270,28.0,28.0,100,0.00,,,0.00,VWS V14.00,2013-02-20 11:17:00,
2013-02-20 06:18:00,19.0,19.0,30.02,West,270,16.0,28.0,100,0.00,,,0.00,VWS V14.00,2013-02-20 11:18:00,
2013-02-20 06:20:00,19.0,19.0,30.02,WSW,247,19.0,29.0,100,0.00,,,0.00,VWS V14.00,2013-02-20 11:20:00,
2013-02-20 06:23:00,19.0,19.0,30.02,WSW,247,19.0,28.0,100,0.00,,,0.00,VWS V14.00,2013-02-20 11:23:00,
2013-02-20 06:27:00,19.0,19.0,30.03,West,270,21.0,30.0,100,0.00,,,0.00,VWS V14.00,2013-02-20 11:27:00,
2013-02-20 06:29:00,18.0,18.0,30.03,West,270,26.0,29.0,100,0.00,,,0.00,VWS V14.00,2013-02-20 11:29:00,
2013-02-20 06:30:00,18.0,18.0,30.03,West,270,15.0,29.0,100,0.00,,,0.00,VWS V14.00,2013-02-20 11:30:00,
2013-02-20 06:31:00,19.0,19.0,30.03,WSW,247,26.0,29.0,100,0.00,,,0.00,VWS V14.00,2013-02-20 11:31:00,
2013-02-20 06:32:00,19.0,19.0,30.03,WSW,247,14.0,31.0,100,0.00,,,0.00,VWS V14.00,2013-02-20 11:32:00,
2013-02-20 06:34:00,19.0,19.0,30.03,West,270,21.0,28.0,100,0.00,,,0.00,VWS V14.00,2013-02-20 11:34:00,
2013-02-20 06:35:00,19.0,19.0,30.03,West,270,25.0,28.0,100,0.00,,,0.00,VWS V14.00,2013-02-20 11:35:00,
2013-02-20 06:36:00,19.0,19.0,30.03,West,270,21.0,28.0,100,0.00,,,0.00,VWS V14.00,2013-02-20 11:36:00,
2013-02-20 06:38:00,19.0,19.0,30.03,West,270,23.0,26.0,100,0.00,,,0.00,VWS V14.00,2013-02-20 11:38:00,
2013-02-20 06:39:00,19.0,19.0,30.03,West,270,23.0,29.0,100,0.00,,,0.00,VWS V14.00,2013-02-20 11:39:00,
2013-02-20 06:40:00,19.0,19.0,30.03,West,270,16.0,29.0,100,0.00,,,0.00,VWS V14.00,2013-02-20 11:40:00,
2013-02-20 06:41:00,19.0,19.0,30.03,West,270,23.0,29.0,100,0.00,,,0.00,VWS V14.00,2013-02-20 11:41:00,
2013-02-20 06:43:00,20.0,20.0,30.03,West,270,16.0,22.0,100,0.00,,,0.00,VWS V14.00,2013-02-20 11:43:00,
2013-02-20 06:45:00,20.0,20.0,30.05,West,270,18.0,26.0,100,0.00,,,0.00,VWS V14.00,2013-02-20 11:45:00,
2013-02-20 06:46:00,20.0,20.0,30.05,West,270,24.0,28.0,100,0.00,,,0.00,VWS V14.00,2013-02-20 11:46:00,
2013-02-20 06:49:00,20.0,20.0,30.05,WNW,292,18.0,31.0,100,0.00,,,0.00,VWS V14.00,2013-02-20 11:49:00,
2013-02-20 06:50:00,20.0,20.0,30.05,WNW,292,15.0,31.0,100,0.00,,,0.00,VWS V14.00,2013-02-20 11:50:00,
2013-02-20 06:51:00,20.0,20.0,30.05,WNW,292,29.0,31.0,100,0.00,,,0.00,VWS V14.00,2013-02-20 11:51:00,
2013-02-20 06:52:00,20.0,20.0,30.05,West,270,21.0,31.0,100,0.00,,,0.00,VWS V14.00,2013-02-20 11:52:00,
2013-02-20 06:55:00,20.0,19.0,30.04,West,270,18.0,33.0,96,0.00,,,0.00,VWS V14.00,2013-02-20 11:55:00,
2013-02-20 06:56:00,20.0,18.8,30.04,WNW,292,21.0,33.0,95,0.00,,,0.00,VWS V14.00,2013-02-20 11:56:00,
2013-02-20 06:57:00,21.0,20.0,30.04,WNW,292,24.0,33.0,96,0.00,,,0.00,VWS V14.00,2013-02-20 11:57:00,
2013-02-20 06:59:00,21.0,21.0,30.04,West,270,24.0,29.0,100,0.00,,,0.00,VWS V14.00,2013-02-20 11:59:00,
2013-02-20 07:00:00,20.0,20.0,30.04,NW,315,21.0,34.0,100,0.00,,,0.00,VWS V14.00,2013-02-20 12:00:00,
2013-02-20 07:02:00,20.0,20.0,30.04,West,270,23.0,34.0,100,0.00,,,0.00,VWS V14.00,2013-02-20 12:02:00,
2013-02-20 07:03:00,20.0,19.5,30.04,NW,315,15.0,23.0,98,0.00,,,0.00,VWS V14.00,2013-02-20 12:03:00,
2013-02-20 07:06:00,21.0,19.8,30.05,WNW,292,20.0,33.0,95,0.00,,,0.00,VWS V14.00,2013-02-20 12:06:00,
2013-02-20 07:07:00,20.0,18.5,30.05,NW,315,25.0,33.0,94,0.00,,,0.00,VWS V14.00,2013-02-20 12:07:00,
2013-02-20 07:09:00,21.0,21.0,30.05,NW,315,19.0,33.0,100,0.00,,,0.00,VWS V14.00,2013-02-20 12:09:00,
2013-02-20 07:11:00,20.0,19.5,30.05,WNW,292,27.0,33.0,98,0.00,,,0.00,VWS V14.00,2013-02-20 12:11:00,
2013-02-20 07:13:00,20.0,19.5,30.05,NW,315,31.0,31.0,98,0.00,,,0.00,VWS V14.00,2013-02-20 12:13:00,
2013-02-20 07:17:00,20.0,19.5,30.04,NW,315,26.0,36.0,98,0.00,,,0.00,VWS V14.00,2013-02-20 12:17:00,
2013-02-20 07:18:00,20.0,18.5,30.04,WNW,292,28.0,41.0,94,0.00,,,0.00,VWS V14.00,2013-02-20 12:18:00,
2013-02-20 07:22:00,20.0,19.5,30.04,WNW,292,24.0,41.0,98,0.00,,,0.00,VWS V14.00,2013-02-20 12:22:00,
2013-02-20 07:23:00,20.0,19.5,30.04,WNW,292,27.0,32.0,98,0.00,,,0.00,VWS V14.00,2013-02-20 12:23:00,
2013-02-20 07:25:00,20.0,19.0,30.05,WNW,292,23.0,32.0,100,0.00,,,0.00,VWS V14.00,2013-02-20 12:25:00,
2013-02-20 07:27:00,20.0,18.5,30.05,WNW,292,23.0,33.0,94,0.00,,,0.00,VWS V14.00,2013-02-20 12:27:00,
2013-02-20 07:29:00,20.0,18.8,30.05,NW,315,24.0,31.0,95,0.00,,,0.00,VWS V14.00,2013-02-20 12:29:00,
2013-02-20 07:30:00,19.0,18.0,30.05,NW,315,14.0,31.0,96,0.00,,,0.00,VWS V14.00,2013-02-20 12:30:00,
2013-02-20 07:32:00,19.0,18.8,30.05,NW,315,21.0,26.0,99,0.00,,,0.00,VWS V14.00,2013-02-20 12:32:00,
2013-02-20 07:35:00,20.0,19.3,30.06,WNW,292,23.0,29.0,97,0.00,,,0.00,VWS V14.00,2013-02-20 12:35:00,
2013-02-20 07:36:00,20.0,19.5,30.06,NW,315,24.0,29.0,98,0.00,,,0.00,VWS V14.00,2013-02-20 12:36:00,
2013-02-20 07:39:00,20.0,18.0,30.06,NW,315,27.0,29.0,92,0.00,,,0.00,VWS V14.00,2013-02-20 12:39:00,
2013-02-20 07:40:00,19.0,17.8,30.06,NW,315,23.0,31.0,95,0.00,,,0.00,VWS V14.00,2013-02-20 12:40:00,
2013-02-20 07:41:00,19.0,17.6,30.06,NW,315,25.0,31.0,94,0.00,,,0.00,VWS V14.00,2013-02-20 12:41:00,
2013-02-20 07:42:00,20.0,18.3,30.06,NW,315,26.0,32.0,93,0.00,,,0.00,VWS V14.00,2013-02-20 12:42:00,
2013-02-20 07:44:00,20.0,17.8,30.06,WNW,292,23.0,31.0,91,0.00,,,0.00,VWS V14.00,2013-02-20 12:44:00,
2013-02-20 07:46:00,20.0,18.3,30.06,WNW,292,20.0,34.0,93,0.00,,,0.00,VWS V14.00,2013-02-20 12:46:00,
2013-02-20 07:48:00,20.0,18.5,30.06,WNW,292,24.0,31.0,94,0.00,,,0.00,VWS V14.00,2013-02-20 12:48:00,
2013-02-20 07:50:00,19.0,17.1,30.06,NW,315,24.0,33.0,92,0.00,,,0.00,VWS V14.00,2013-02-20 12:50:00,
2013-02-20 07:51:00,20.0,18.5,30.06,NW,315,31.0,34.0,94,0.00,,,0.00,VWS V14.00,2013-02-20 12:51:00,
2013-02-20 07:52:00,20.0,18.8,30.06,WNW,292,25.0,34.0,95,0.00,,,0.00,VWS V14.00,2013-02-20 12:52:00,
2013-02-20 07:53:00,19.0,17.6,30.06,NW,315,26.0,30.0,94,0.00,,,0.00,VWS V14.00,2013-02-20 12:53:00,
2013-02-20 07:57:00,19.0,16.8,30.06,WNW,292,26.0,33.0,91,0.00,,,0.00,VWS V14.00,2013-02-20 12:57:00,
2013-02-20 07:59:00,20.0,17.8,30.06,NW,315,26.0,29.0,91,0.00,,,0.00,VWS V14.00,2013-02-20 12:59:00,
2013-02-20 08:03:00,19.0,15.5,30.06,NW,315,29.0,33.0,86,0.00,,,0.00,VWS V14.00,2013-02-20 13:03:00,
2013-02-20 08:04:00,20.0,16.5,30.06,WNW,292,32.0,33.0,86,0.00,,,0.00,VWS V14.00,2013-02-20 13:04:00,
2013-02-20 08:05:00,19.0,15.0,30.06,NW,315,26.0,34.0,84,0.00,,,0.00,VWS V14.00,2013-02-20 13:05:00,
2013-02-20 08:08:00,20.0,16.2,30.06,NW,315,26.0,29.0,85,0.00,,,0.00,VWS V14.00,2013-02-20 13:08:00,
2013-02-20 08:10:00,20.0,15.1,30.06,NW,315,23.0,32.0,81,0.00,,,0.00,VWS V14.00,2013-02-20 13:10:00,
2013-02-20 08:11:00,20.0,16.8,30.06,NW,315,21.0,32.0,87,0.00,,,0.00,VWS V14.00,2013-02-20 13:11:00,
2013-02-20 08:14:00,20.0,16.5,30.07,NW,315,20.0,29.0,86,0.00,,,0.00,VWS V14.00,2013-02-20 13:14:00,
2013-02-20 08:15:00,20.0,15.9,30.07,NW,315,24.0,29.0,84,0.00,,,0.00,VWS V14.00,2013-02-20 13:15:00,
2013-02-20 08:16:00,20.0,15.1,30.07,NW,315,26.0,31.0,81,0.00,,,0.00,VWS V14.00,2013-02-20 13:16:00,
2013-02-20 08:19:00,19.0,13.9,30.07,NW,315,24.0,33.0,80,0.00,,,0.00,VWS V14.00,2013-02-20 13:19:00,
2013-02-20 08:20:00,20.0,15.1,30.07,NW,315,15.0,33.0,81,0.00,,,0.00,VWS V14.00,2013-02-20 13:20:00,
2013-02-20 08:21:00,20.0,15.7,30.07,NW,315,20.0,33.0,83,0.00,,,0.00,VWS V14.00,2013-02-20 13:21:00,
2013-02-20 08:22:00,20.0,16.2,30.07,NW,315,26.0,33.0,85,0.00,,,0.00,VWS V14.00,2013-02-20 13:22:00,
2013-02-20 08:24:00,21.0,17.8,30.08,NW,315,23.0,30.0,87,0.00,,,0.00,VWS V14.00,2013-02-20 13:24:00,
2013-02-20 08:25:00,20.0,16.2,30.08,NW,315,15.0,30.0,85,0.00,,,0.00,VWS V14.00,2013-02-20 13:25:00,
2013-02-20 08:27:00,20.0,15.1,30.08,NW,315,29.0,30.0,81,0.00,,,0.00,VWS V14.00,2013-02-20 13:27:00,
2013-02-20 08:28:00,20.0,16.2,30.08,NW,315,27.0,31.0,85,0.00,,,0.00,VWS V14.00,2013-02-20 13:28:00,
2013-02-20 08:30:00,20.0,15.1,30.08,NW,315,22.0,31.0,81,0.00,,,0.00,VWS V14.00,2013-02-20 13:30:00,
2013-02-20 08:31:00,20.0,15.4,30.08,West,270,20.0,31.0,82,0.00,,,0.00,VWS V14.00,2013-02-20 13:31:00,
2013-02-20 08:33:00,20.0,15.1,30.08,West,270,21.0,24.0,81,0.00,,,0.00,VWS V14.00,2013-02-20 13:33:00,
2013-02-20 08:36:00,20.0,15.9,30.07,NW,315,24.0,28.0,84,0.00,,,0.00,VWS V14.00,2013-02-20 13:36:00,
2013-02-20 08:37:00,20.0,15.7,30.07,NW,315,27.0,30.0,83,0.00,,,0.00,VWS V14.00,2013-02-20 13:37:00,
2013-02-20 08:39:00,20.0,15.4,30.07,WNW,292,28.0,29.0,82,0.00,,,0.00,VWS V14.00,2013-02-20 13:39:00,
2013-02-20 08:42:00,20.0,15.4,30.07,West,270,20.0,29.0,82,0.00,,,0.00,VWS V14.00,2013-02-20 13:42:00,
2013-02-20 08:43:00,20.0,15.4,30.07,WNW,292,13.0,22.0,82,0.00,,,0.00,VWS V14.00,2013-02-20 13:43:00,
2013-02-20 08:44:00,20.0,16.2,30.07,WNW,292,23.0,30.0,85,0.00,,,0.00,VWS V14.00,2013-02-20 13:44:00,
2013-02-20 08:48:00,20.0,15.7,30.07,West,270,21.0,28.0,83,0.00,,,0.00,VWS V14.00,2013-02-20 13:48:00,
2013-02-20 08:49:00,21.0,16.9,30.07,WNW,292,18.0,28.0,84,0.00,,,0.00,VWS V14.00,2013-02-20 13:49:00,
2013-02-20 08:52:00,20.0,14.3,30.07,NW,315,27.0,33.0,78,0.00,,,0.00,VWS V14.00,2013-02-20 13:52:00,
2013-02-20 08:53:00,20.0,13.7,30.07,NW,315,27.0,32.0,76,0.00,,,0.00,VWS V14.00,2013-02-20 13:53:00,
2013-02-20 08:54:00,20.0,14.3,30.09,NW,315,25.0,32.0,78,0.00,,,0.00,VWS V14.00,2013-02-20 13:54:00,
2013-02-20 08:59:00,20.0,14.8,30.09,NW,315,24.0,28.0,80,0.00,,,0.00,VWS V14.00,2013-02-20 13:59:00,
2013-02-20 09:00:00,20.0,16.2,30.09,NW,315,23.0,28.0,85,0.00,,,0.00,VWS V14.00,2013-02-20 14:00:00,
2013-02-20 09:04:00,20.0,14.8,30.08,NW,315,26.0,28.0,80,0.00,,,0.00,VWS V14.00,2013-02-20 14:04:00,
2013-02-20 09:05:00,20.0,14.8,30.08,NW,315,20.0,29.0,80,0.00,,,0.00,VWS V14.00,2013-02-20 14:05:00,
2013-02-20 09:06:00,19.0,13.9,30.08,NW,315,26.0,29.0,80,0.00,,,0.00,VWS V14.00,2013-02-20 14:06:00,
2013-02-20 09:07:00,20.0,15.7,30.08,NW,315,24.0,32.0,83,0.00,,,0.00,VWS V14.00,2013-02-20 14:07:00,
2013-02-20 09:09:00,20.0,14.3,30.08,WNW,292,19.0,26.0,78,0.00,,,0.00,VWS V14.00,2013-02-20 14:09:00,
2013-02-20 09:10:00,20.0,15.4,30.08,NW,315,23.0,29.0,82,0.00,,,0.00,VWS V14.00,2013-02-20 14:10:00,
2013-02-20 09:11:00,19.0,13.9,30.08,NW,315,23.0,30.0,80,0.00,,,0.00,VWS V14.00,2013-02-20 14:11:00,
2013-02-20 09:12:00,20.0,15.4,30.08,NW,315,24.0,30.0,82,0.00,,,0.00,VWS V14.00,2013-02-20 14:12:00,
2013-02-20 09:15:00,20.0,16.2,30.09,NW,315,23.0,31.0,85,0.00,,,0.00,VWS V14.00,2013-02-20 14:15:00,
2013-02-20 09:16:00,20.0,15.9,30.09,NW,315,21.0,31.0,84,0.00,,,0.00,VWS V14.00,2013-02-20 14:16:00,
2013-02-20 09:17:00,20.0,15.1,30.09,NW,315,26.0,27.0,81,0.00,,,0.00,VWS V14.00,2013-02-20 14:17:00,
2013-02-20 09:18:00,20.0,14.3,30.09,WNW,292,20.0,27.0,78,0.00,,,0.00,VWS V14.00,2013-02-20 14:18:00,
2013-02-20 09:21:00,20.0,15.7,30.09,WNW,292,25.0,34.0,83,0.00,,,0.00,VWS V14.00,2013-02-20 14:21:00,
2013-02-20 09:24:00,19.0,13.9,30.09,WNW,292,21.0,26.0,80,0.00,,,0.00,VWS V14.00,2013-02-20 14:24:00,
2013-02-20 09:27:00,19.0,13.9,30.09,NW,315,23.0,29.0,80,0.00,,,0.00,VWS V14.00,2013-02-20 14:27:00,
2013-02-20 09:29:00,19.0,13.3,30.09,NW,315,27.0,29.0,78,0.00,,,0.00,VWS V14.00,2013-02-20 14:29:00,
2013-02-20 09:32:00,19.0,14.1,30.09,NW,315,28.0,29.0,81,0.00,,,0.00,VWS V14.00,2013-02-20 14:32:00,
2013-02-20 09:34:00,19.0,13.9,30.09,NW,315,26.0,31.0,80,0.00,,,0.00,VWS V14.00,2013-02-20 14:34:00,
2013-02-20 09:36:00,20.0,16.5,30.09,NW,315,25.0,31.0,86,0.00,,,0.00,VWS V14.00,2013-02-20 14:36:00,
2013-02-20 09:37:00,19.0,13.9,30.09,NW,315,16.0,34.0,80,0.00,,,0.00,VWS V14.00,2013-02-20 14:37:00,
2013-02-20 09:40:00,20.0,15.4,30.09,NW,315,24.0,28.0,82,0.00,,,0.00,VWS V14.00,2013-02-20 14:40:00,
2013-02-20 09:41:00,20.0,16.2,30.09,WNW,292,23.0,28.0,85,0.00,,,0.00,VWS V14.00,2013-02-20 14:41:00,
2013-02-20 09:42:00,20.0,15.1,30.09,NW,315,24.0,24.0,81,0.00,,,0.00,VWS V14.00,2013-02-20 14:42:00,
2013-02-20 09:45:00,19.0,13.9,30.10,WNW,292,20.0,29.0,80,0.00,,,0.00,VWS V14.00,2013-02-20 14:45:00,
2013-02-20 09:46:00,19.0,13.6,30.10,NW,315,26.0,29.0,79,0.00,,,0.00,VWS V14.00,2013-02-20 14:46:00,
2013-02-20 09:49:00,19.0,12.7,30.10,NW,315,24.0,31.0,76,0.00,,,0.00,VWS V14.00,2013-02-20 14:49:00,
2013-02-20 09:50:00,19.0,13.9,30.10,NW,315,24.0,32.0,80,0.00,,,0.00,VWS V14.00,2013-02-20 14:50:00,
2013-02-20 09:51:00,19.0,13.9,30.10,NW,315,21.0,32.0,80,0.00,,,0.00,VWS V14.00,2013-02-20 14:51:00,
2013-02-20 09:52:00,19.0,13.6,30.10,NW,315,16.0,32.0,79,0.00,,,0.00,VWS V14.00,2013-02-20 14:52:00,
2013-02-20 09:54:00,19.0,13.3,30.09,NW,315,23.0,30.0,78,0.00,,,0.00,VWS V14.00,2013-02-20 14:54:00,
2013-02-20 09:57:00,19.0,13.9,30.09,WNW,292,23.0,32.0,80,0.00,,,0.00,VWS V14.00,2013-02-20 14:57:00,
2013-02-20 09:58:00,19.0,13.6,30.09,NW,315,21.0,29.0,79,0.00,,,0.00,VWS V14.00,2013-02-20 14:58:00,
2013-02-20 09:59:00,19.0,13.9,30.09,NW,315,29.0,32.0,80,0.00,,,0.00,VWS V14.00,2013-02-20 14:59:00,
2013-02-20 10:02:00,19.0,14.4,30.09,NW,315,31.0,32.0,82,0.00,,,0.00,VWS V14.00,2013-02-20 15:02:00,
2013-02-20 10:04:00,19.0,13.3,30.10,WNW,292,21.0,33.0,78,0.00,,,0.00,VWS V14.00,2013-02-20 15:04:00,
2013-02-20 10:05:00,20.0,15.1,30.10,NW,315,24.0,33.0,81,0.00,,,0.00,VWS V14.00,2013-02-20 15:05:00,
2013-02-20 10:07:00,19.0,13.9,30.10,WNW,292,26.0,33.0,80,0.00,,,0.00,VWS V14.00,2013-02-20 15:07:00,
2013-02-20 10:10:00,19.0,13.3,30.10,NW,315,23.0,31.0,78,0.00,,,0.00,VWS V14.00,2013-02-20 15:10:00,
2013-02-20 10:11:00,19.0,13.9,30.10,NW,315,25.0,31.0,80,0.00,,,0.00,VWS V14.00,2013-02-20 15:11:00,
2013-02-20 10:12:00,19.0,14.4,30.10,NW,315,22.0,31.0,82,0.00,,,0.00,VWS V14.00,2013-02-20 15:12:00,
2013-02-20 10:16:00,20.0,15.4,30.10,West,270,12.0,26.0,82,0.00,,,0.00,VWS V14.00,2013-02-20 15:16:00,
2013-02-20 10:17:00,20.0,15.9,30.10,WNW,292,23.0,23.0,84,0.00,,,0.00,VWS V14.00,2013-02-20 15:17:00,
2013-02-20 10:21:00,20.0,15.9,30.10,NW,315,24.0,28.0,84,0.00,,,0.00,VWS V14.00,2013-02-20 15:21:00,
2013-02-20 10:22:00,19.0,14.4,30.10,NW,315,27.0,33.0,82,0.00,,,0.00,VWS V14.00,2013-02-20 15:22:00,
2013-02-20 10:23:00,20.0,15.7,30.10,WNW,292,23.0,26.0,83,0.00,,,0.00,VWS V14.00,2013-02-20 15:23:00,
2013-02-20 10:27:00,20.0,15.1,30.11,NW,315,23.0,28.0,81,0.00,,,0.00,VWS V14.00,2013-02-20 15:27:00,
2013-02-20 10:28:00,20.0,15.1,30.11,NW,315,26.0,26.0,81,0.00,,,0.00,VWS V14.00,2013-02-20 15:28:00,
2013-02-20 10:29:00,20.0,14.6,30.11,NW,315,24.0,29.0,79,0.00,,,0.00,VWS V14.00,2013-02-20 15:29:00,
2013-02-20 10:33:00,20.0,14.6,30.11,WNW,292,19.0,20.0,79,0.00,,,0.00,VWS V14.00,2013-02-20 15:33:00,
2013-02-20 10:34:00,20.0,14.3,30.12,WNW,292,15.0,24.0,78,0.00,,,0.00,VWS V14.00,2013-02-20 15:34:00,
2013-02-20 10:35:00,20.0,15.1,30.12,NW,315,15.0,24.0,81,0.00,,,0.00,VWS V14.00,2013-02-20 15:35:00,
2013-02-20 10:38:00,20.0,16.2,30.12,NW,315,15.0,20.0,85,0.00,,,0.00,VWS V14.00,2013-02-20 15:38:00,
2013-02-20 10:39:00,19.0,14.4,30.12,NW,315,26.0,31.0,82,0.00,,,0.00,VWS V14.00,2013-02-20 15:39:00,
2013-02-20 10:40:00,20.0,15.1,30.12,NW,315,20.0,31.0,81,0.00,,,0.00,VWS V14.00,2013-02-20 15:40:00,
2013-02-20 10:43:00,19.0,12.7,30.12,NW,315,18.0,28.0,76,0.00,,,0.00,VWS V14.00,2013-02-20 15:43:00,
2013-02-20 10:45:00,19.0,14.4,30.12,NW,315,21.0,28.0,82,0.00,,,0.00,VWS V14.00,2013-02-20 15:45:00,
2013-02-20 10:47:00,19.0,13.6,30.12,NW,315,26.0,34.0,79,0.00,,,0.00,VWS V14.00,2013-02-20 15:47:00,
2013-02-20 10:50:00,19.0,14.1,30.12,NW,315,17.0,24.0,78,0.00,,,0.00,VWS V14.00,2013-02-20 15:50:00,
2013-02-20 10:52:00,19.0,13.0,30.12,WNW,292,26.0,29.0,77,0.00,,,0.00,VWS V14.00,2013-02-20 15:52:00,
2013-02-20 10:53:00,20.0,14.8,30.12,NW,315,22.0,26.0,80,0.00,,,0.00,VWS V14.00,2013-02-20 15:53:00,
2013-02-20 10:55:00,20.0,15.1,30.12,NW,315,28.0,28.0,81,0.00,,,0.00,VWS V14.00,2013-02-20 15:55:00,
2013-02-20 10:57:00,19.0,13.9,30.12,WNW,292,15.0,28.0,80,0.00,,,0.00,VWS V14.00,2013-02-20 15:57:00,
2013-02-20 10:59:00,19.0,14.4,30.12,NW,315,21.0,26.0,82,0.00,,,0.00,VWS V14.00,2013-02-20 15:59:00,
2013-02-20 11:01:00,19.0,13.9,30.12,NW,315,22.0,29.0,80,0.00,,OVC035,0.00,VWS V14.00,2013-02-20 16:01:00,
2013-02-20 11:03:00,19.0,14.4,30.12,NW,315,23.0,23.0,82,0.00,,OVC035,0.00,VWS V14.00,2013-02-20 16:03:00,
2013-02-20 11:05:00,20.0,13.0,30.12,NW,315,20.0,28.0,81,0.00,,OVC035,0.00,VWS V14.00,2013-02-20 16:05:00,
2013-02-20 11:07:00,20.0,15.4,30.12,NW,315,16.0,28.0,82,0.00,,OVC035,0.00,VWS V14.00,2013-02-20 16:07:00,
2013-02-20 11:08:00,20.0,15.7,30.12,NW,315,18.0,25.0,83,0.00,,OVC035,0.00,VWS V14.00,2013-02-20 16:08:00,
2013-02-20 11:09:00,20.0,15.4,30.12,West,270,24.0,25.0,82,0.00,,OVC035,0.00,VWS V14.00,2013-02-20 16:09:00,
2013-02-20 11:10:00,20.0,14.8,30.12,NW,315,18.0,27.0,80,0.00,,OVC035,0.00,VWS V14.00,2013-02-20 16:10:00,
2013-02-20 11:12:00,20.0,14.0,30.12,NW,315,22.0,27.0,77,0.00,,OVC035,0.00,VWS V14.00,2013-02-20 16:12:00,
2013-02-20 11:14:00,20.0,15.1,30.14,WNW,292,20.0,25.0,81,0.00,,OVC035,0.00,VWS V14.00,2013-02-20 16:14:00,
2013-02-20 11:17:00,20.0,15.1,30.14,NW,315,20.0,27.0,81,0.00,,OVC035,0.00,VWS V14.00,2013-02-20 16:17:00,
2013-02-20 11:20:00,20.0,15.7,30.14,NW,315,18.0,23.0,83,0.00,,OVC035,0.00,VWS V14.00,2013-02-20 16:20:00,
2013-02-20 11:21:00,19.0,13.6,30.14,NW,315,16.0,24.0,79,0.00,,OVC035,0.00,VWS V14.00,2013-02-20 16:21:00,
2013-02-20 11:22:00,20.0,14.8,30.14,NW,315,26.0,28.0,80,0.00,,OVC035,0.00,VWS V14.00,2013-02-20 16:22:00,
2013-02-20 11:23:00,19.0,13.9,30.14,NW,315,19.0,26.0,80,0.00,,OVC035,0.00,VWS V14.00,2013-02-20 16:23:00,
2013-02-20 11:26:00,20.0,16.2,30.13,NW,315,20.0,28.0,85,0.00,,OVC035,0.00,VWS V14.00,2013-02-20 16:26:00,
2013-02-20 11:27:00,19.0,14.4,30.13,NW,315,21.0,28.0,82,0.00,,OVC035,0.00,VWS V14.00,2013-02-20 16:27:00,
2013-02-20 11:28:00,20.0,16.2,30.13,NW,315,24.0,29.0,85,0.00,,OVC035,0.00,VWS V14.00,2013-02-20 16:28:00,
2013-02-20 11:31:00,20.0,16.5,30.13,NW,315,23.0,30.0,86,0.00,,OVC035,0.00,VWS V14.00,2013-02-20 16:31:00,
2013-02-20 11:33:00,19.0,15.5,30.13,NW,315,20.0,24.0,86,0.00,,OVC035,0.00,VWS V14.00,2013-02-20 16:33:00,
2013-02-20 11:34:00,20.0,17.5,30.13,NW,315,21.0,26.0,90,0.00,,OVC035,0.00,VWS V14.00,2013-02-20 16:34:00,
2013-02-20 11:35:00,20.0,17.3,30.13,WNW,292,15.0,26.0,89,0.00,,OVC035,0.00,VWS V14.00,2013-02-20 16:35:00,
2013-02-20 11:36:00,19.0,15.8,30.13,NW,315,16.0,26.0,87,0.00,,OVC035,0.00,VWS V14.00,2013-02-20 16:36:00,
2013-02-20 11:38:00,19.0,15.2,30.13,NW,315,20.0,30.0,85,0.00,,OVC035,0.00,VWS V14.00,2013-02-20 16:38:00,
2013-02-20 11:39:00,19.0,15.0,30.13,NW,315,29.0,30.0,84,0.00,,OVC035,0.00,VWS V14.00,2013-02-20 16:39:00,
2013-02-20 11:40:00,20.0,15.4,30.13,NW,315,23.0,30.0,82,0.00,,OVC035,0.00,VWS V14.00,2013-02-20 16:40:00,
2013-02-20 11:42:00,20.0,15.4,30.13,NW,315,21.0,30.0,82,0.00,,OVC035,0.00,VWS V14.00,2013-02-20 16:42:00,
2013-02-20 11:44:00,20.0,16.2,30.14,NW,315,17.0,23.0,85,0.00,,OVC035,0.00,VWS V14.00,2013-02-20 16:44:00,
2013-02-20 11:45:00,20.0,15.9,30.14,West,270,13.0,23.0,84,0.00,,OVC035,0.00,VWS V14.00,2013-02-20 16:45:00,
2013-02-20 11:47:00,20.0,17.0,30.14,NW,315,23.0,30.0,88,0.00,,OVC035,0.00,VWS V14.00,2013-02-20 16:47:00,
2013-02-20 11:50:00,19.0,14.4,30.14,NW,315,18.0,28.0,82,0.00,,OVC035,0.00,VWS V14.00,2013-02-20 16:50:00,
2013-02-20 11:51:00,20.0,15.1,30.14,NW,315,26.0,29.0,81,0.00,,OVC035,0.00,VWS V14.00,2013-02-20 16:51:00,
2013-02-20 11:52:00,20.0,15.1,30.14,NW,315,20.0,29.0,81,0.00,,OVC035,0.00,VWS V14.00,2013-02-20 16:52:00,
2013-02-20 11:55:00,20.0,16.5,30.14,NW,315,18.0,26.0,86,0.00,,OVC035,0.00,VWS V14.00,2013-02-20 16:55:00,
2013-02-20 11:57:00,19.0,15.8,30.14,NW,315,22.0,26.0,87,0.00,,OVC035,0.00,VWS V14.00,2013-02-20 16:57:00,
2013-02-20 11:58:00,20.0,16.8,30.14,NW,315,18.0,25.0,87,0.00,,OVC035,0.00,VWS V14.00,2013-02-20 16:58:00,
2013-02-20 12:00:00,20.0,16.5,30.14,NW,315,21.0,27.0,86,0.00,,OVC035,0.00,VWS V14.00,2013-02-20 17:00:00,
2013-02-20 12:03:00,19.0,16.8,30.14,NW,315,19.0,23.0,91,0.00,,OVC035,0.00,VWS V14.00,2013-02-20 17:03:00,
2013-02-20 12:04:00,19.0,16.8,30.15,NW,315,14.0,23.0,91,0.00,,OVC035,0.00,VWS V14.00,2013-02-20 17:04:00,
2013-02-20 12:06:00,20.0,15.9,30.15,NW,315,15.0,23.0,84,0.00,,OVC035,0.00,VWS V14.00,2013-02-20 17:06:00,
2013-02-20 12:08:00,20.0,17.0,30.15,NW,315,14.0,18.0,88,0.00,,OVC035,0.00,VWS V14.00,2013-02-20 17:08:00,
2013-02-20 12:11:00,19.0,15.2,30.15,NW,315,13.0,26.0,85,0.00,,OVC035,0.00,VWS V14.00,2013-02-20 17:11:00,
2013-02-20 12:13:00,19.0,17.1,30.15,NW,315,15.0,23.0,92,0.00,,OVC035,0.00,VWS V14.00,2013-02-20 17:13:00,
2013-02-20 12:15:00,20.0,17.3,30.15,NW,315,25.0,26.0,89,0.00,,OVC035,0.00,VWS V14.00,2013-02-20 17:15:00,
2013-02-20 12:16:00,20.0,16.2,30.15,NW,315,17.0,26.0,85,0.00,,OVC035,0.00,VWS V14.00,2013-02-20 17:16:00,
2013-02-20 12:17:00,20.0,16.5,30.15,NW,315,23.0,26.0,86,0.00,,OVC035,0.00,VWS V14.00,2013-02-20 17:17:00,
2013-02-20 12:19:00,19.0,16.8,30.15,NW,315,20.0,28.0,91,0.00,,OVC035,0.00,VWS V14.00,2013-02-20 17:19:00,
2013-02-20 12:20:00,19.0,15.8,30.15,NW,315,20.0,28.0,87,0.00,,OVC035,0.00,VWS V14.00,2013-02-20 17:20:00,
2013-02-20 12:21:00,19.0,15.0,30.15,NW,315,16.0,28.0,84,0.00,,OVC035,0.00,VWS V14.00,2013-02-20 17:21:00,
2013-02-20 12:22:00,19.0,15.5,30.15,NW,315,21.0,28.0,86,0.00,,OVC035,0.00,VWS V14.00,2013-02-20 17:22:00,
2013-02-20 12:24:00,20.0,15.9,30.15,WNW,292,20.0,21.0,84,0.00,,OVC035,0.00,VWS V14.00,2013-02-20 17:24:00,
2013-02-20 12:26:00,20.0,16.5,30.15,NW,315,22.0,24.0,86,0.00,,OVC035,0.00,VWS V14.00,2013-02-20 17:26:00,
2013-02-20 12:27:00,20.0,17.8,30.15,NW,315,18.0,24.0,91,0.00,,OVC035,0.00,VWS V14.00,2013-02-20 17:27:00,
2013-02-20 12:28:00,19.0,17.6,30.15,NW,315,12.0,21.0,94,0.00,,OVC035,0.00,VWS V14.00,2013-02-20 17:28:00,
2013-02-20 12:31:00,19.0,17.6,30.15,NW,315,16.0,25.0,94,0.00,,OVC035,0.00,VWS V14.00,2013-02-20 17:31:00,
2013-02-20 12:32:00,19.0,18.3,30.15,NW,315,24.0,26.0,97,0.00,,OVC035,0.00,VWS V14.00,2013-02-20 17:32:00,
2013-02-20 12:34:00,19.0,18.8,30.15,NW,315,24.0,24.0,99,0.00,,OVC035,0.00,VWS V14.00,2013-02-20 17:34:00,
2013-02-20 12:37:00,19.0,19.0,30.15,NW,315,16.0,24.0,100,0.00,,OVC035,0.00,VWS V14.00,2013-02-20 17:37:00,
2013-02-20 12:38:00,19.0,19.0,30.15,WNW,292,18.0,23.0,100,0.00,,OVC035,0.00,VWS V14.00,2013-02-20 17:38:00,
2013-02-20 12:41:00,19.0,18.3,30.15,WNW,292,11.0,25.0,97,0.00,,OVC035,0.00,VWS V14.00,2013-02-20 17:41:00,
2013-02-20 12:42:00,19.0,18.0,30.15,WNW,292,11.0,25.0,96,0.00,,OVC035,0.00,VWS V14.00,2013-02-20 17:42:00,
2013-02-20 12:45:00,19.0,16.6,30.16,WNW,292,18.0,21.0,90,0.00,,OVC035,0.00,VWS V14.00,2013-02-20 17:45:00,
2013-02-20 12:46:00,20.0,17.0,30.16,WNW,292,13.0,21.0,88,0.00,,OVC035,0.00,VWS V14.00,2013-02-20 17:46:00,
2013-02-20 12:47:00,20.0,16.2,30.16,West,270,18.0,21.0,85,0.00,,OVC035,0.00,VWS V14.00,2013-02-20 17:47:00,
2013-02-20 12:48:00,20.0,16.2,30.16,West,270,20.0,21.0,85,0.00,,OVC035,0.00,VWS V14.00,2013-02-20 17:48:00,
2013-02-20 12:51:00,20.0,15.1,30.16,NW,315,13.0,24.0,81,0.00,,OVC035,0.00,VWS V14.00,2013-02-20 17:51:00,
2013-02-20 12:52:00,20.0,16.5,30.16,NW,315,17.0,24.0,86,0.00,,OVC035,0.00,VWS V14.00,2013-02-20 17:52:00,
2013-02-20 12:53:00,20.0,15.9,30.16,WNW,292,18.0,23.0,84,0.00,,OVC035,0.00,VWS V14.00,2013-02-20 17:53:00,
2013-02-20 12:54:00,20.0,16.2,30.16,WNW,292,17.0,23.0,85,0.00,,OVC035,0.00,VWS V14.00,2013-02-20 17:54:00,
2013-02-20 12:57:00,19.0,16.0,30.16,WNW,292,18.0,26.0,88,0.00,,OVC035,0.00,VWS V14.00,2013-02-20 17:57:00,
2013-02-20 12:58:00,20.0,17.5,30.16,WNW,292,11.0,20.0,90,0.00,,OVC035,0.00,VWS V14.00,2013-02-20 17:58:00,
2013-02-20 12:59:00,19.0,16.6,30.16,NW,315,13.0,21.0,90,0.00,,OVC035,0.00,VWS V14.00,2013-02-20 17:59:00,
2013-02-20 13:00:00,19.0,16.3,30.16,WNW,292,10.0,21.0,89,0.00,,OVC035,0.00,VWS V14.00,2013-02-20 18:00:00,
2013-02-20 13:02:00,20.0,17.8,30.16,WNW,292,16.0,21.0,91,0.00,,,0.00,VWS V14.00,2013-02-20 18:02:00,
2013-02-20 13:04:00,20.0,17.8,30.16,West,270,12.0,19.0,91,0.00,,,0.00,VWS V14.00,2013-02-20 18:04:00,
2013-02-20 13:05:00,20.0,17.8,30.16,NW,315,13.0,19.0,91,0.00,,,0.00,VWS V14.00,2013-02-20 18:05:00,
2013-02-20 13:06:00,20.0,17.8,30.16,NW,315,19.0,21.0,91,0.00,,,0.00,VWS V14.00,2013-02-20 18:06:00,
2013-02-20 13:07:00,20.0,18.0,30.16,NW,315,13.0,18.0,92,0.00,,,0.00,VWS V14.00,2013-02-20 18:07:00,
2013-02-20 13:10:00,19.0,18.8,30.16,NW,315,18.0,24.0,99,0.00,,,0.00,VWS V14.00,2013-02-20 18:10:00,
2013-02-20 13:12:00,19.0,19.0,30.16,NW,315,15.0,24.0,100,0.00,,,0.00,VWS V14.00,2013-02-20 18:12:00,
2013-02-20 13:13:00,19.0,19.0,30.16,WNW,292,15.0,20.0,100,0.00,,,0.00,VWS V14.00,2013-02-20 18:13:00,
2013-02-20 13:16:00,20.0,19.5,30.15,NW,315,16.0,21.0,98,0.00,,,0.00,VWS V14.00,2013-02-20 18:16:00,
2013-02-20 13:17:00,20.0,19.8,30.15,West,270,20.0,23.0,99,0.00,,,0.00,VWS V14.00,2013-02-20 18:17:00,
2013-02-20 13:18:00,19.0,19.0,30.15,NW,315,16.0,21.0,100,0.00,,,0.00,VWS V14.00,2013-02-20 18:18:00,
2013-02-20 13:20:00,20.0,19.8,30.15,NW,315,15.0,21.0,100,0.00,,,0.00,VWS V14.00,2013-02-20 18:20:00,
2013-02-20 13:21:00,20.0,19.8,30.15,NW,315,16.0,21.0,99,0.00,,,0.00,VWS V14.00,2013-02-20 18:21:00,
2013-02-20 13:22:00,19.0,19.0,30.15,NW,315,11.0,21.0,100,0.00,,,0.00,VWS V14.00,2013-02-20 18:22:00,
2013-02-20 13:25:00,20.0,20.0,30.16,NW,315,13.0,18.0,100,0.00,,,0.00,VWS V14.00,2013-02-20 18:25:00,
2013-02-20 13:26:00,19.0,19.0,30.16,NW,315,21.0,23.0,100,0.00,,,0.00,VWS V14.00,2013-02-20 18:26:00,
2013-02-20 13:27:00,19.0,19.0,30.16,NW,315,13.0,23.0,100,0.00,,,0.00,VWS V14.00,2013-02-20 18:27:00,
2013-02-20 13:30:00,19.0,19.0,30.16,NW,315,18.0,22.0,100,0.00,,,0.00,VWS V14.00,2013-02-20 18:30:00,
2013-02-20 13:32:00,20.0,18.5,30.16,WNW,292,15.0,18.0,94,0.00,,,0.00,VWS V14.00,2013-02-20 18:32:00,
2013-02-20 13:33:00,20.0,17.5,30.16,WNW,292,14.0,18.0,90,0.00,,,0.00,VWS V14.00,2013-02-20 18:33:00,
2013-02-20 13:34:00,20.0,17.3,30.16,WNW,292,15.0,21.0,89,0.00,,,0.00,VWS V14.00,2013-02-20 18:34:00,
2013-02-20 13:35:00,20.0,16.8,30.16,NW,315,17.0,21.0,87,0.00,,,0.00,VWS V14.00,2013-02-20 18:35:00,
2013-02-20 13:37:00,20.0,16.2,30.16,NW,315,13.0,24.0,85,0.00,,,0.00,VWS V14.00,2013-02-20 18:37:00,
2013-02-20 13:38:00,20.0,16.8,30.16,West,270,21.0,25.0,87,0.00,,,0.00,VWS V14.00,2013-02-20 18:38:00,
2013-02-20 13:39:00,20.0,16.8,30.16,West,270,15.0,25.0,87,0.00,,,0.00,VWS V14.00,2013-02-20 18:39:00,
2013-02-20 13:41:00,20.0,17.5,30.16,WNW,292,21.0,26.0,90,0.00,,,0.00,VWS V14.00,2013-02-20 18:41:00,
2013-02-20 13:44:00,20.0,16.2,30.15,NW,315,23.0,26.0,85,0.00,,,0.00,VWS V14.00,2013-02-20 18:44:00,
2013-02-20 13:46:00,20.0,17.5,30.15,WNW,292,15.0,26.0,90,0.00,,,0.00,VWS V14.00,2013-02-20 18:46:00,
2013-02-20 13:49:00,20.0,16.8,30.15,WNW,292,16.0,20.0,87,0.00,,,0.00,VWS V14.00,2013-02-20 18:49:00,
2013-02-20 13:52:00,21.0,17.8,30.15,NW,315,13.0,23.0,87,0.00,,,0.00,VWS V14.00,2013-02-20 18:52:00,
2013-02-20 13:55:00,20.0,16.5,30.16,West,270,17.0,24.0,86,0.00,,,0.00,VWS V14.00,2013-02-20 18:55:00,
2013-02-20 13:57:00,20.0,17.0,30.16,WNW,292,21.0,24.0,88,0.00,,,0.00,VWS V14.00,2013-02-20 18:57:00,
2013-02-20 14:00:00,20.0,16.2,30.16,NW,315,15.0,23.0,85,0.00,,,0.00,VWS V14.00,2013-02-20 19:00:00,
2013-02-20 14:01:00,20.0,17.3,30.16,West,270,16.0,23.0,89,0.00,,,0.00,VWS V14.00,2013-02-20 19:01:00,
2013-02-20 14:04:00,20.0,17.8,30.16,NW,315,15.0,23.0,91,0.00,,,0.00,VWS V14.00,2013-02-20 19:04:00,
2013-02-20 14:07:00,20.0,17.0,30.16,NW,315,16.0,23.0,88,0.00,,,0.00,VWS V14.00,2013-02-20 19:07:00,
2013-02-20 14:08:00,20.0,16.8,30.16,West,270,21.0,21.0,87,0.00,,,0.00,VWS V14.00,2013-02-20 19:08:00,
2013-02-20 14:09:00,20.0,16.2,30.16,WNW,292,13.0,24.0,85,0.00,,,0.00,VWS V14.00,2013-02-20 19:09:00,
2013-02-20 14:12:00,20.0,16.8,30.16,West,270,18.0,20.0,87,0.00,,,0.00,VWS V14.00,2013-02-20 19:12:00,
2013-02-20 14:13:00,20.0,17.0,30.16,NW,315,20.0,20.0,88,0.00,,,0.00,VWS V14.00,2013-02-20 19:13:00,
2013-02-20 14:14:00,20.0,17.0,30.17,West,270,11.0,20.0,88,0.00,,,0.00,VWS V14.00,2013-02-20 19:14:00,
2013-02-20 14:15:00,21.0,18.5,30.17,NW,315,12.0,21.0,90,0.00,,,0.00,VWS V14.00,2013-02-20 19:15:00,
2013-02-20 14:18:00,20.0,16.8,30.17,WNW,292,16.0,16.0,87,0.00,,,0.00,VWS V14.00,2013-02-20 19:18:00,
2013-02-20 14:19:00,20.0,17.0,30.17,NW,315,16.0,20.0,88,0.00,,,0.00,VWS V14.00,2013-02-20 19:19:00,
2013-02-20 14:21:00,20.0,16.8,30.17,NW,315,15.0,21.0,88,0.00,,,0.00,VWS V14.00,2013-02-20 19:21:00,
2013-02-20 14:22:00,20.0,17.0,30.17,WNW,292,12.0,21.0,88,0.00,,,0.00,VWS V14.00,2013-02-20 19:22:00,
2013-02-20 14:24:00,21.0,18.0,30.17,West,270,21.0,21.0,88,0.00,,,0.00,VWS V14.00,2013-02-20 19:24:00,
2013-02-20 14:25:00,21.0,17.5,30.17,WNW,292,12.0,21.0,86,0.00,,,0.00,VWS V14.00,2013-02-20 19:25:00,
2013-02-20 14:27:00,21.0,16.4,30.17,WNW,292,13.0,21.0,82,0.00,,,0.00,VWS V14.00,2013-02-20 19:27:00,
2013-02-20 14:28:00,21.0,16.7,30.17,NW,315,14.0,19.0,83,0.00,,,0.00,VWS V14.00,2013-02-20 19:28:00,
2013-02-20 14:30:00,21.0,16.4,30.17,West,270,18.0,22.0,82,0.00,,,0.00,VWS V14.00,2013-02-20 19:30:00,
2013-02-20 14:33:00,21.0,16.1,30.17,WNW,292,18.0,23.0,81,0.00,,,0.00,VWS V14.00,2013-02-20 19:33:00,
2013-02-20 14:34:00,21.0,14.6,30.16,NW,315,22.0,23.0,81,0.00,,,0.00,VWS V14.00,2013-02-20 19:34:00,
2013-02-20 14:35:00,21.0,15.5,30.16,WNW,292,21.0,23.0,79,0.00,,,0.00,VWS V14.00,2013-02-20 19:35:00,
2013-02-20 14:36:00,21.0,16.1,30.16,NW,315,20.0,24.0,81,0.00,,,0.00,VWS V14.00,2013-02-20 19:36:00,
2013-02-20 14:40:00,21.0,17.2,30.16,NW,315,16.0,25.0,85,0.00,,,0.00,VWS V14.00,2013-02-20 19:40:00,
2013-02-20 14:41:00,21.0,17.2,30.16,WNW,292,19.0,26.0,85,0.00,,,0.00,VWS V14.00,2013-02-20 19:41:00,
2013-02-20 14:42:00,21.0,17.8,30.16,NW,315,21.0,26.0,87,0.00,,,0.00,VWS V14.00,2013-02-20 19:42:00,
2013-02-20 14:46:00,21.0,17.2,30.17,WNW,292,18.0,23.0,85,0.00,,,0.00,VWS V14.00,2013-02-20 19:46:00,
2013-02-20 14:47:00,21.0,16.9,30.17,NW,315,15.0,23.0,84,0.00,,,0.00,VWS V14.00,2013-02-20 19:47:00,
2013-02-20 14:48:00,21.0,16.1,30.17,West,270,15.0,21.0,81,0.00,,,0.00,VWS V14.00,2013-02-20 19:48:00,
2013-02-20 14:52:00,21.0,16.1,30.17,West,270,17.0,23.0,81,0.00,,,0.00,VWS V14.00,2013-02-20 19:52:00,
2013-02-20 14:53:00,21.0,16.1,30.17,WNW,292,9.0,18.0,81,0.00,,,0.00,VWS V14.00,2013-02-20 19:53:00,
2013-02-20 14:57:00,21.0,16.7,30.18,West,270,18.0,23.0,83,0.00,,,0.00,VWS V14.00,2013-02-20 19:57:00,
2013-02-20 14:58:00,21.0,15.8,30.18,West,270,12.0,21.0,80,0.00,,,0.00,VWS V14.00,2013-02-20 19:58:00,
2013-02-20 14:59:00,21.0,16.4,30.18,NW,315,12.0,21.0,82,0.00,,,0.00,VWS V14.00,2013-02-20 19:59:00,
2013-02-20 15:02:00,21.0,15.5,30.18,WNW,292,28.0,28.0,79,0.00,,,0.00,VWS V14.00,2013-02-20 20:02:00,
2013-02-20 15:03:00,21.0,15.8,30.18,NW,315,13.0,28.0,80,0.00,,,0.00,VWS V14.00,2013-02-20 20:03:00,
2013-02-20 15:04:00,21.0,16.9,30.18,NW,315,15.0,28.0,84,0.00,,,0.00,VWS V14.00,2013-02-20 20:04:00,
2013-02-20 15:05:00,21.0,16.9,30.18,NW,315,21.0,28.0,84,0.00,,,0.00,VWS V14.00,2013-02-20 20:05:00,
2013-02-20 15:08:00,20.0,17.0,30.18,West,270,14.0,20.0,88,0.00,,,0.00,VWS V14.00,2013-02-20 20:08:00,
2013-02-20 15:09:00,20.0,17.0,30.18,NW,315,15.0,20.0,88,0.00,,,0.00,VWS V14.00,2013-02-20 20:09:00,
2013-02-20 15:10:00,20.0,17.3,30.18,WNW,292,16.0,20.0,89,0.00,,,0.00,VWS V14.00,2013-02-20 20:10:00,
2013-02-20 15:11:00,21.0,18.3,30.18,NW,315,20.0,20.0,89,0.00,,,0.00,VWS V14.00,2013-02-20 20:11:00,
2013-02-20 15:14:00,21.0,18.0,30.18,NW,315,17.0,20.0,88,0.00,,,0.00,VWS V14.00,2013-02-20 20:14:00,
2013-02-20 15:15:00,21.0,18.0,30.18,WNW,292,22.0,22.0,88,0.00,,,0.00,VWS V14.00,2013-02-20 20:15:00,
2013-02-20 15:16:00,21.0,18.5,30.18,WNW,292,18.0,23.0,90,0.00,,,0.00,VWS V14.00,2013-02-20 20:16:00,
2013-02-20 15:19:00,21.0,18.3,30.18,NW,315,20.0,23.0,89,0.00,,,0.00,VWS V14.00,2013-02-20 20:19:00,
2013-02-20 15:21:00,21.0,18.5,30.18,NW,315,17.0,23.0,90,0.00,,,0.00,VWS V14.00,2013-02-20 20:21:00,
2013-02-20 15:22:00,21.0,18.5,30.18,WNW,292,14.0,23.0,90,0.00,,,0.00,VWS V14.00,2013-02-20 20:22:00,
2013-02-20 15:23:00,21.0,19.0,30.18,NW,315,16.0,16.0,92,0.00,,,0.00,VWS V14.00,2013-02-20 20:23:00,
2013-02-20 15:25:00,21.0,19.0,30.19,WNW,292,17.0,21.0,92,0.00,,,0.00,VWS V14.00,2013-02-20 20:25:00,
2013-02-20 15:27:00,21.0,18.8,30.19,West,270,19.0,24.0,91,0.00,,,0.00,VWS V14.00,2013-02-20 20:27:00,
2013-02-20 15:28:00,20.0,17.8,30.19,West,270,14.0,23.0,91,0.00,,,0.00,VWS V14.00,2013-02-20 20:28:00,
2013-02-20 15:29:00,20.0,18.0,30.19,WNW,292,15.0,23.0,92,0.00,,,0.00,VWS V14.00,2013-02-20 20:29:00,
2013-02-20 15:31:00,21.0,18.3,30.19,WNW,292,18.0,23.0,89,0.00,,,0.00,VWS V14.00,2013-02-20 20:31:00,
2013-02-20 15:32:00,21.0,18.5,30.19,NW,315,16.0,23.0,90,0.00,,,0.00,VWS V14.00,2013-02-20 20:32:00,
2013-02-20 15:34:00,21.0,17.5,30.18,NW,315,11.0,19.0,88,0.00,,,0.00,VWS V14.00,2013-02-20 20:34:00,
2013-02-20 15:35:00,21.0,17.8,30.18,WNW,292,12.0,19.0,87,0.00,,,0.00,VWS V14.00,2013-02-20 20:35:00,
2013-02-20 15:37:00,21.0,16.7,30.18,WNW,292,15.0,20.0,83,0.00,,,0.00,VWS V14.00,2013-02-20 20:37:00,
2013-02-20 15:39:00,21.0,16.7,30.18,WNW,292,10.0,20.0,83,0.00,,,0.00,VWS V14.00,2013-02-20 20:39:00,
2013-02-20 15:41:00,21.0,16.7,30.18,West,270,13.0,20.0,83,0.00,,,0.00,VWS V14.00,2013-02-20 20:41:00,
2013-02-20 15:42:00,21.0,15.5,30.18,NW,315,18.0,21.0,79,0.00,,,0.00,VWS V14.00,2013-02-20 20:42:00,
2013-02-20 15:44:00,21.0,15.5,30.19,West,270,16.0,21.0,79,0.00,,,0.00,VWS V14.00,2013-02-20 20:44:00,
2013-02-20 15:46:00,21.0,15.5,30.19,NW,315,13.0,21.0,79,0.00,,,0.00,VWS V14.00,2013-02-20 20:46:00,
2013-02-20 15:48:00,21.0,16.4,30.19,WNW,292,16.0,16.0,82,0.00,,,0.00,VWS V14.00,2013-02-20 20:48:00,
2013-02-20 15:49:00,21.0,15.8,30.19,WNW,292,14.0,20.0,80,0.00,,,0.00,VWS V14.00,2013-02-20 20:49:00,
2013-02-20 15:50:00,21.0,16.4,30.19,NW,315,13.0,20.0,82,0.00,,,0.00,VWS V14.00,2013-02-20 20:50:00,
2013-02-20 15:51:00,21.0,17.5,30.19,WNW,292,21.0,22.0,86,0.00,,,0.00,VWS V14.00,2013-02-20 20:51:00,
2013-02-20 15:53:00,21.0,17.2,30.19,WNW,292,18.0,21.0,85,0.00,,,0.00,VWS V14.00,2013-02-20 20:53:00,
2013-02-20 15:55:00,21.0,17.2,30.19,West,270,16.0,21.0,85,0.00,,,0.00,VWS V14.00,2013-02-20 20:55:00,
2013-02-20 15:56:00,21.0,16.7,30.19,NW,315,19.0,23.0,83,0.00,,,0.00,VWS V14.00,2013-02-20 20:56:00,
2013-02-20 15:59:00,21.0,16.9,30.19,WNW,292,21.0,22.0,84,0.00,,,0.00,VWS V14.00,2013-02-20 20:59:00,
2013-02-20 16:00:00,21.0,16.9,30.19,WNW,292,18.0,22.0,84,0.00,,,0.00,VWS V14.00,2013-02-20 21:00:00,
2013-02-20 16:02:00,21.0,15.8,30.19,NW,315,20.0,22.0,80,0.00,,,0.00,VWS V14.00,2013-02-20 21:02:00,
2013-02-20 16:04:00,21.0,16.4,30.19,WNW,292,14.0,21.0,82,0.00,,,0.00,VWS V14.00,2013-02-20 21:04:00,
2013-02-20 16:07:00,21.0,15.8,30.19,NW,315,15.0,21.0,80,0.00,,,0.00,VWS V14.00,2013-02-20 21:07:00,
2013-02-20 16:09:00,21.0,15.5,30.19,WNW,292,13.0,24.0,79,0.00,,,0.00,VWS V14.00,2013-02-20 21:09:00,
2013-02-20 16:10:00,21.0,16.1,30.19,West,270,15.0,24.0,81,0.00,,,0.00,VWS V14.00,2013-02-20 21:10:00,
2013-02-20 16:13:00,21.0,17.8,30.19,WNW,292,15.0,20.0,83,0.00,,,0.00,VWS V14.00,2013-02-20 21:13:00,
2013-02-20 16:15:00,21.0,17.2,30.20,West,270,18.0,25.0,85,0.00,,,0.00,VWS V14.00,2013-02-20 21:15:00,
2013-02-20 16:16:00,21.0,17.5,30.20,West,270,17.0,25.0,86,0.00,,,0.00,VWS V14.00,2013-02-20 21:16:00,
2013-02-20 16:18:00,21.0,17.5,30.20,WNW,292,17.0,24.0,86,0.00,,,0.00,VWS V14.00,2013-02-20 21:18:00,
2013-02-20 16:21:00,21.0,17.5,30.20,West,270,16.0,26.0,86,0.00,,,0.00,VWS V14.00,2013-02-20 21:21:00,
2013-02-20 16:22:00,21.0,17.5,30.20,West,270,10.0,26.0,86,0.00,,,0.00,VWS V14.00,2013-02-20 21:22:00,
2013-02-20 16:23:00,21.0,17.5,30.20,West,270,15.0,17.0,86,0.00,,,0.00,VWS V14.00,2013-02-20 21:23:00,
2013-02-20 16:26:00,21.0,17.5,30.21,NW,315,13.0,21.0,86,0.00,,,0.00,VWS V14.00,2013-02-20 21:26:00,
2013-02-20 16:27:00,21.0,17.5,30.21,NW,315,16.0,22.0,86,0.00,,,0.00,VWS V14.00,2013-02-20 21:27:00,
2013-02-20 16:29:00,21.0,17.5,30.21,West,270,12.0,23.0,86,0.00,,,0.00,VWS V14.00,2013-02-20 21:29:00,
2013-02-20 16:31:00,21.0,17.5,30.21,West,270,11.0,24.0,86,0.00,,,0.00,VWS V14.00,2013-02-20 21:31:00,
2013-02-20 16:32:00,21.0,18.0,30.21,WSW,247,17.0,24.0,88,0.00,,,0.00,VWS V14.00,2013-02-20 21:32:00,
2013-02-20 16:33:00,21.0,18.5,30.21,WNW,292,17.0,18.0,90,0.00,,,0.00,VWS V14.00,2013-02-20 21:33:00,
2013-02-20 16:35:00,21.0,18.8,30.21,WNW,292,14.0,24.0,91,0.00,,,0.00,VWS V14.00,2013-02-20 21:35:00,
2013-02-20 16:37:00,21.0,18.8,30.21,WNW,292,16.0,24.0,91,0.00,,,0.00,VWS V14.00,2013-02-20 21:37:00,
2013-02-20 16:39:00,21.0,18.5,30.21,WNW,292,19.0,20.0,90,0.00,,,0.00,VWS V14.00,2013-02-20 21:39:00,
2013-02-20 16:41:00,21.0,18.5,30.21,WNW,292,11.0,21.0,90,0.00,,,0.00,VWS V14.00,2013-02-20 21:41:00,
2013-02-20 16:43:00,21.0,18.3,30.21,WNW,292,15.0,24.0,89,0.00,,,0.00,VWS V14.00,2013-02-20 21:43:00,
2013-02-20 16:47:00,21.0,18.0,30.22,West,270,21.0,26.0,88,0.00,,,0.00,VWS V14.00,2013-02-20 21:47:00,
2013-02-20 16:48:00,21.0,17.8,30.22,West,270,16.0,24.0,87,0.00,,,0.00,VWS V14.00,2013-02-20 21:48:00,
2013-02-20 16:51:00,21.0,16.4,30.22,West,270,16.0,26.0,82,0.00,,,0.00,VWS V14.00,2013-02-20 21:51:00,
2013-02-20 16:52:00,21.0,15.2,30.22,West,270,23.0,28.0,78,0.00,,,0.00,VWS V14.00,2013-02-20 21:52:00,
2013-02-20 16:53:00,21.0,14.9,30.22,WNW,292,20.0,27.0,77,0.00,,,0.00,VWS V14.00,2013-02-20 21:53:00,
2013-02-20 16:54:00,22.0,17.1,30.22,West,270,16.0,27.0,81,0.00,,,0.00,VWS V14.00,2013-02-20 21:54:00,
2013-02-20 16:56:00,22.0,16.8,30.22,WNW,292,25.0,27.0,80,0.00,,,0.00,VWS V14.00,2013-02-20 21:56:00,
2013-02-20 16:58:00,22.0,16.8,30.22,West,270,25.0,25.0,80,0.00,,,0.00,VWS V14.00,2013-02-20 21:58:00,
2013-02-20 17:00:00,21.0,16.7,30.22,West,270,24.0,26.0,83,0.00,,,0.00,VWS V14.00,2013-02-20 22:00:00,
2013-02-20 17:02:00,22.0,16.8,30.22,West,270,15.0,26.0,80,0.00,,,0.00,VWS V14.00,2013-02-20 22:02:00,
2013-02-20 17:03:00,22.0,17.9,30.22,West,270,18.0,26.0,84,0.00,,,0.00,VWS V14.00,2013-02-20 22:03:00,
2013-02-20 17:04:00,21.0,16.7,30.22,West,270,20.0,26.0,83,0.00,,,0.00,VWS V14.00,2013-02-20 22:04:00,
2013-02-20 17:05:00,21.0,17.2,30.22,West,270,21.0,27.0,85,0.00,,,0.00,VWS V14.00,2013-02-20 22:05:00,
2013-02-20 17:07:00,21.0,17.5,30.22,WNW,292,26.0,28.0,86,0.00,,,0.00,VWS V14.00,2013-02-20 22:07:00,
2013-02-20 17:10:00,21.0,18.8,30.22,West,270,21.0,26.0,91,0.00,,,0.00,VWS V14.00,2013-02-20 22:10:00,
2013-02-20 17:11:00,21.0,18.8,30.22,WSW,247,20.0,28.0,91,0.00,,,0.00,VWS V14.00,2013-02-20 22:11:00,
2013-02-20 17:13:00,21.0,18.8,30.22,West,270,23.0,30.0,91,0.00,,,0.00,VWS V14.00,2013-02-20 22:13:00,
2013-02-20 17:15:00,21.0,18.8,30.22,WSW,247,15.0,30.0,91,0.00,,,0.00,VWS V14.00,2013-02-20 22:15:00,
2013-02-20 17:17:00,21.0,18.8,30.22,West,270,15.0,30.0,90,0.00,,,0.00,VWS V14.00,2013-02-20 22:17:00,
2013-02-20 17:18:00,21.0,18.5,30.22,West,270,17.0,22.0,90,0.00,,,0.00,VWS V14.00,2013-02-20 22:18:00,
2013-02-20 17:21:00,21.0,17.5,30.22,West,270,17.0,29.0,86,0.00,,,0.00,VWS V14.00,2013-02-20 22:21:00,
2013-02-20 17:22:00,21.0,17.5,30.22,WNW,292,18.0,29.0,86,0.00,,,0.00,VWS V14.00,2013-02-20 22:22:00,
2013-02-20 17:24:00,21.0,17.2,30.23,WNW,292,16.0,24.0,85,0.00,,,0.00,VWS V14.00,2013-02-20 22:24:00,
2013-02-20 17:27:00,21.0,16.4,30.23,West,270,18.0,26.0,82,0.00,,,0.00,VWS V14.00,2013-02-20 22:27:00,
2013-02-20 17:28:00,21.0,16.9,30.23,NW,315,13.0,26.0,84,0.00,,,0.00,VWS V14.00,2013-02-20 22:28:00,
2013-02-20 17:30:00,21.0,17.5,30.23,West,270,19.0,26.0,86,0.00,,,0.00,VWS V14.00,2013-02-20 22:30:00,
2013-02-20 17:34:00,21.0,17.5,30.23,West,270,16.0,26.0,86,0.00,,,0.00,VWS V14.00,2013-02-20 22:34:00,
2013-02-20 17:35:00,21.0,17.2,30.23,NW,315,15.0,26.0,85,0.00,,,0.00,VWS V14.00,2013-02-20 22:35:00,
2013-02-20 17:40:00,21.0,16.4,30.23,West,270,19.0,24.0,82,0.00,,,0.00,VWS V14.00,2013-02-20 22:40:00,
2013-02-20 17:41:00,21.0,17.5,30.23,NW,315,21.0,24.0,86,0.00,,,0.00,VWS V14.00,2013-02-20 22:41:00,
2013-02-20 17:45:00,21.0,18.0,30.23,WNW,292,14.0,20.0,88,0.00,,,0.00,VWS V14.00,2013-02-20 22:45:00,
2013-02-20 17:46:00,21.0,17.2,30.23,West,270,16.0,27.0,85,0.00,,,0.00,VWS V14.00,2013-02-20 22:46:00,
2013-02-20 17:47:00,22.0,18.7,30.23,NW,315,16.0,27.0,87,0.00,,,0.00,VWS V14.00,2013-02-20 22:47:00,
2013-02-20 17:51:00,21.0,16.7,30.23,West,270,13.0,24.0,83,0.00,,,0.00,VWS V14.00,2013-02-20 22:51:00,
2013-02-20 17:52:00,22.0,17.6,30.23,WNW,292,18.0,24.0,83,0.00,,,0.00,VWS V14.00,2013-02-20 22:52:00,
2013-02-20 17:53:00,22.0,17.4,30.23,West,270,11.0,20.0,82,0.00,,,0.00,VWS V14.00,2013-02-20 22:53:00,
2013-02-20 17:56:00,21.0,16.7,30.22,West,270,17.0,24.0,83,0.00,,,0.00,VWS V14.00,2013-02-20 22:56:00,
2013-02-20 17:57:00,21.0,16.7,30.22,WNW,292,13.0,24.0,83,0.00,,,0.00,VWS V14.00,2013-02-20 22:57:00,
2013-02-20 17:59:00,21.0,16.7,30.22,WNW,292,15.0,24.0,83,0.00,,,0.00,VWS V14.00,2013-02-20 22:59:00,
2013-02-20 18:02:00,21.0,16.9,30.22,West,270,17.0,24.0,84,0.00,,,0.00,VWS V14.00,2013-02-20 23:02:00,
2013-02-20 18:04:00,21.0,16.9,30.23,West,270,15.0,23.0,84,0.00,,,0.00,VWS V14.00,2013-02-20 23:04:00,
2013-02-20 18:05:00,21.0,16.9,30.23,West,270,12.0,23.0,84,0.00,,,0.00,VWS V14.00,2013-02-20 23:05:00,
2013-02-20 18:08:00,21.0,16.7,30.23,West,270,21.0,23.0,83,0.00,,,0.00,VWS V14.00,2013-02-20 23:08:00,
2013-02-20 18:09:00,21.0,16.7,30.23,West,270,18.0,23.0,83,0.00,,,0.00,VWS V14.00,2013-02-20 23:09:00,
2013-02-20 18:10:00,22.0,17.6,30.23,WNW,292,10.0,23.0,83,0.00,,,0.00,VWS V14.00,2013-02-20 23:10:00,
2013-02-20 18:13:00,21.0,17.2,30.23,West,270,21.0,21.0,85,0.00,,,0.00,VWS V14.00,2013-02-20 23:13:00,
2013-02-20 18:14:00,21.0,16.7,30.22,WNW,292,15.0,21.0,83,0.00,,,0.00,VWS V14.00,2013-02-20 23:14:00,
2013-02-20 18:15:00,21.0,16.4,30.22,WNW,292,15.0,21.0,82,0.00,,,0.00,VWS V14.00,2013-02-20 23:15:00,
2013-02-20 18:19:00,21.0,16.4,30.22,West,270,14.0,24.0,82,0.00,,,0.00,VWS V14.00,2013-02-20 23:19:00,
2013-02-20 18:21:00,21.0,16.7,30.22,West,270,10.0,24.0,81,0.00,,,0.00,VWS V14.00,2013-02-20 23:21:00,
2013-02-20 18:22:00,22.0,18.2,30.22,WNW,292,11.0,24.0,85,0.00,,,0.00,VWS V14.00,2013-02-20 23:22:00,
2013-02-20 18:25:00,21.0,17.2,30.22,West,270,15.0,24.0,85,0.00,,,0.00,VWS V14.00,2013-02-20 23:25:00,
2013-02-20 18:26:00,21.0,17.2,30.22,WNW,292,14.0,25.0,85,0.00,,,0.00,VWS V14.00,2013-02-20 23:26:00,
2013-02-20 18:27:00,21.0,17.5,30.22,NW,315,14.0,25.0,86,0.00,,,0.00,VWS V14.00,2013-02-20 23:27:00,
2013-02-20 18:30:00,21.0,18.0,30.22,WNW,292,16.0,22.0,88,0.00,,,0.00,VWS V14.00,2013-02-20 23:30:00,
2013-02-20 18:32:00,21.0,17.5,30.22,NW,315,15.0,22.0,86,0.00,,,0.00,VWS V14.00,2013-02-20 23:32:00,
2013-02-20 18:33:00,21.0,16.9,30.22,WNW,292,12.0,16.0,84,0.00,,,0.00,VWS V14.00,2013-02-20 23:33:00,
2013-02-20 18:37:00,22.0,18.2,30.22,WNW,292,17.0,27.0,85,0.00,,,0.00,VWS V14.00,2013-02-20 23:37:00,
2013-02-20 18:38:00,22.0,19.0,30.22,NW,315,14.0,21.0,88,0.00,,,0.00,VWS V14.00,2013-02-20 23:38:00,
2013-02-20 18:39:00,21.0,17.5,30.22,NW,315,20.0,24.0,86,0.00,,,0.00,VWS V14.00,2013-02-20 23:39:00,
2013-02-20 18:43:00,21.0,17.2,30.22,NW,315,13.0,18.0,85,0.00,,,0.00,VWS V14.00,2013-02-20 23:43:00,
2013-02-20 18:44:00,21.0,17.6,30.23,WNW,292,14.0,18.0,85,0.00,,,0.00,VWS V14.00,2013-02-20 23:44:00,
2013-02-20 18:45:00,21.0,16.9,30.23,NW,315,18.0,23.0,84,0.00,,,0.00,VWS V14.00,2013-02-20 23:45:00,
2013-02-20 18:49:00,21.0,16.7,30.23,West,270,18.0,21.0,83,0.00,,,0.00,VWS V14.00,2013-02-20 23:49:00,
2013-02-20 18:50:00,21.0,16.1,30.23,West,270,13.0,24.0,81,0.00,,,0.00,VWS V14.00,2013-02-20 23:50:00,
2013-02-20 18:54:00,22.0,17.9,30.23,NW,315,10.0,20.0,84,0.00,,,0.00,VWS V14.00,2013-02-20 23:54:00,
2013-02-20 18:55:00,21.0,18.0,30.23,NW,315,12.0,20.0,88,0.00,,,0.00,VWS V14.00,2013-02-20 23:55:00,
2013-02-20 18:57:00,21.0,17.8,30.23,WNW,292,13.0,22.0,87,0.00,,,0.00,VWS V14.00,2013-02-20 23:57:00,
2013-02-20 19:01:00,21.0,16.7,30.23,WNW,292,17.0,23.0,83,0.00,,,0.00,VWS V14.00,2013-02-21 00:01:00,
2013-02-20 19:02:00,21.0,16.7,30.23,WNW,292,11.0,23.0,83,0.00,,,0.00,VWS V14.00,2013-02-21 00:02:00,
2013-02-20 19:03:00,21.0,16.7,30.23,NW,315,15.0,20.0,83,0.00,,,0.00,VWS V14.00,2013-02-21 00:03:00,
2013-02-20 19:06:00,21.0,16.7,30.22,WNW,292,13.0,23.0,83,0.00,,,0.00,VWS V14.00,2013-02-21 00:06:00,
2013-02-20 19:07:00,21.0,16.7,30.22,WNW,292,15.0,23.0,83,0.00,,,0.00,VWS V14.00,2013-02-21 00:07:00,
2013-02-20 19:08:00,21.0,16.7,30.22,WNW,292,10.0,16.0,83,0.00,,,0.00,VWS V14.00,2013-02-21 00:08:00,
2013-02-20 19:12:00,21.0,16.9,30.22,NW,315,17.0,23.0,84,0.00,,,0.00,VWS V14.00,2013-02-21 00:12:00,
2013-02-20 19:13:00,21.0,16.9,30.22,WNW,292,13.0,20.0,84,0.00,,,0.00,VWS V14.00,2013-02-21 00:13:00,
2013-02-20 19:14:00,21.0,16.9,30.22,West,270,13.0,20.0,84,0.00,,,0.00,VWS V14.00,2013-02-21 00:14:00,
2013-02-20 19:17:00,21.0,16.7,30.22,NW,315,11.0,20.0,83,0.00,,,0.00,VWS V14.00,2013-02-21 00:17:00,
2013-02-20 19:18:00,21.0,17.2,30.22,NW,315,18.0,18.0,85,0.00,,,0.00,VWS V14.00,2013-02-21 00:18:00,
2013-02-20 19:19:00,21.0,16.7,30.22,NW,315,20.0,23.0,83,0.00,,,0.00,VWS V14.00,2013-02-21 00:19:00,
2013-02-20 19:23:00,21.0,17.5,30.22,WNW,292,16.0,16.0,86,0.00,,,0.00,VWS V14.00,2013-02-21 00:23:00,
2013-02-20 19:25:00,21.0,17.8,30.23,NW,315,10.0,21.0,87,0.00,,,0.00,VWS V14.00,2013-02-21 00:25:00,
2013-02-20 19:28:00,21.0,17.8,30.23,NW,315,9.0,17.0,87,0.00,,,0.00,VWS V14.00,2013-02-21 00:28:00,
2013-02-20 19:29:00,21.0,17.5,30.23,NW,315,15.0,20.0,86,0.00,,,0.00,VWS V14.00,2013-02-21 00:29:00,
2013-02-20 19:30:00,21.0,17.5,30.23,West,270,12.0,20.0,86,0.00,,,0.00,VWS V14.00,2013-02-21 00:30:00,
2013-02-20 19:31:00,21.0,17.2,30.23,NW,315,18.0,20.0,85,0.00,,,0.00,VWS V14.00,2013-02-21 00:31:00,
2013-02-20 19:34:00,21.0,16.7,30.24,WNW,292,13.0,20.0,83,0.00,,,0.00,VWS V14.00,2013-02-21 00:34:00,
2013-02-20 19:35:00,21.0,16.4,30.24,WNW,292,15.0,20.0,83,0.00,,,0.00,VWS V14.00,2013-02-21 00:35:00,
2013-02-20 19:36:00,21.0,15.8,30.24,West,270,21.0,21.0,80,0.00,,,0.00,VWS V14.00,2013-02-21 00:36:00,
2013-02-20 19:37:00,21.0,15.8,30.24,WNW,292,15.0,21.0,80,0.00,,,0.00,VWS V14.00,2013-02-21 00:37:00,
2013-02-20 19:39:00,21.0,15.5,30.24,West,270,15.0,20.0,79,0.00,,,0.00,VWS V14.00,2013-02-21 00:39:00,
2013-02-20 19:41:00,22.0,17.1,30.24,NW,315,11.0,21.0,81,0.00,,,0.00,VWS V14.00,2013-02-21 00:41:00,
2013-02-20 19:42:00,21.0,16.1,30.24,NW,315,16.0,21.0,81,0.00,,,0.00,VWS V14.00,2013-02-21 00:42:00,
2013-02-20 19:46:00,22.0,17.4,30.23,West,270,12.0,19.0,82,0.00,,,0.00,VWS V14.00,2013-02-21 00:46:00,
2013-02-20 19:47:00,22.0,17.9,30.23,WNW,292,14.0,22.0,84,0.00,,,0.00,VWS V14.00,2013-02-21 00:47:00,
2013-02-20 19:48:00,21.0,16.9,30.23,WNW,292,18.0,21.0,84,0.00,,,0.00,VWS V14.00,2013-02-21 00:48:00,
2013-02-20 19:51:00,21.0,16.9,30.23,WNW,292,16.0,21.0,84,0.00,,,0.00,VWS V14.00,2013-02-21 00:51:00,
2013-02-20 19:52:00,22.0,17.9,30.23,West,270,11.0,21.0,84,0.00,,,0.00,VWS V14.00,2013-02-21 00:52:00,
2013-02-20 19:54:00,21.0,17.5,30.24,WNW,292,15.0,16.0,86,0.00,,,0.00,VWS V14.00,2013-02-21 00:54:00,
2013-02-20 19:55:00,21.0,17.5,30.24,NW,315,11.0,19.0,86,0.00,,,0.00,VWS V14.00,2013-02-21 00:55:00,
2013-02-20 19:56:00,21.0,17.8,30.24,WNW,292,11.0,20.0,87,0.00,,,0.00,VWS V14.00,2013-02-21 00:56:00,
2013-02-20 19:57:00,21.0,17.5,30.24,WNW,292,13.0,20.0,86,0.00,,,0.00,VWS V14.00,2013-02-21 00:57:00,
2013-02-20 19:59:00,22.0,17.9,30.24,NW,315,18.0,20.0,84,0.00,,,0.00,VWS V14.00,2013-02-21 00:59:00,
2013-02-20 20:00:00,22.0,18.2,30.24,West,270,9.0,20.0,85,0.00,,,0.00,VWS V14.00,2013-02-21 01:00:00,
2013-02-20 20:02:00,21.0,16.9,30.24,West,270,14.0,20.0,84,0.00,,,0.00,VWS V14.00,2013-02-21 01:02:00,
2013-02-20 20:05:00,21.0,16.7,30.24,West,270,10.0,15.0,83,0.00,,,0.00,VWS V14.00,2013-02-21 01:05:00,
2013-02-20 20:06:00,21.0,16.7,30.24,WNW,292,10.0,16.0,83,0.00,,,0.00,VWS V14.00,2013-02-21 01:06:00,
2013-02-20 20:07:00,21.0,16.9,30.24,West,270,15.0,18.0,84,0.00,,,0.00,VWS V14.00,2013-02-21 01:07:00,
2013-02-20 20:10:00,21.0,16.9,30.24,West,270,11.0,19.0,84,0.00,,,0.00,VWS V14.00,2013-02-21 01:10:00,
2013-02-20 20:11:00,21.0,17.5,30.24,WNW,292,11.0,19.0,86,0.00,,,0.00,VWS V14.00,2013-02-21 01:11:00,
2013-02-20 20:12:00,21.0,17.5,30.24,NW,315,10.0,19.0,86,0.00,,,0.00,VWS V14.00,2013-02-21 01:12:00,
2013-02-20 20:13:00,21.0,18.0,30.24,West,270,15.0,17.0,88,0.00,,,0.00,VWS V14.00,2013-02-21 01:13:00,
2013-02-20 20:15:00,21.0,18.0,30.24,West,270,19.0,19.0,88,0.00,,,0.00,VWS V14.00,2013-02-21 01:15:00,
2013-02-20 20:17:00,21.0,18.0,30.24,West,270,16.0,21.0,88,0.00,,,0.00,VWS V14.00,2013-02-21 01:17:00,
2013-02-20 20:18:00,21.0,18.0,30.24,WNW,292,16.0,19.0,88,0.00,,,0.00,VWS V14.00,2013-02-21 01:18:00,
2013-02-20 20:22:00,21.0,17.8,30.24,West,270,8.0,20.0,89,0.00,,OVC035,0.00,VWS V14.00,2013-02-21 01:22:00,
2013-02-20 20:24:00,21.0,16.7,30.24,WNW,292,18.0,23.0,83,0.00,,OVC035,0.00,VWS V14.00,2013-02-21 01:24:00,
2013-02-20 20:28:00,21.0,16.7,30.24,NW,315,19.0,19.0,83,0.00,,OVC035,0.00,VWS V14.00,2013-02-21 01:28:00,
2013-02-20 20:29:00,22.0,17.9,30.24,WNW,292,14.0,21.0,84,0.00,,OVC035,0.00,VWS V14.00,2013-02-21 01:29:00,
2013-02-20 20:30:00,22.0,17.9,30.24,NW,315,14.0,21.0,84,0.00,,OVC035,0.00,VWS V14.00,2013-02-21 01:30:00,
2013-02-20 20:31:00,22.0,18.2,30.24,WNW,292,11.0,21.0,85,0.00,,OVC035,0.00,VWS V14.00,2013-02-21 01:31:00,
2013-02-20 20:33:00,22.0,17.9,30.24,West,270,14.0,15.0,84,0.00,,OVC035,0.00,VWS V14.00,2013-02-21 01:33:00,
2013-02-20 20:35:00,21.0,16.7,30.23,WNW,292,15.0,18.0,83,0.00,,OVC035,0.00,VWS V14.00,2013-02-21 01:35:00,
2013-02-20 20:36:00,22.0,17.1,30.23,NW,315,15.0,18.0,81,0.00,,OVC035,0.00,VWS V14.00,2013-02-21 01:36:00,
2013-02-20 20:38:00,22.0,17.4,30.23,NW,315,14.0,16.0,82,0.00,,OVC035,0.00,VWS V14.00,2013-02-21 01:38:00,
2013-02-20 20:40:00,22.0,17.4,30.23,NW,315,10.0,21.0,82,0.00,,OVC035,0.00,VWS V14.00,2013-02-21 01:40:00,
2013-02-20 20:41:00,21.0,15.8,30.23,NW,315,13.0,21.0,80,0.00,,OVC035,0.00,VWS V14.00,2013-02-21 01:41:00,
2013-02-20 20:43:00,22.0,17.1,30.23,WNW,292,16.0,18.0,81,0.00,,OVC035,0.00,VWS V14.00,2013-02-21 01:43:00,
2013-02-20 20:44:00,22.0,16.5,30.23,NW,315,15.0,23.0,79,0.00,,OVC035,0.00,VWS V14.00,2013-02-21 01:44:00,
2013-02-20 20:46:00,21.0,15.5,30.23,WNW,292,18.0,23.0,79,0.00,,OVC035,0.00,VWS V14.00,2013-02-21 01:46:00,
2013-02-20 20:47:00,22.0,16.8,30.23,NW,315,13.0,23.0,80,0.00,,OVC035,0.00,VWS V14.00,2013-02-21 01:47:00,
2013-02-20 20:49:00,21.0,15.5,30.23,NW,315,12.0,20.0,79,0.00,,OVC035,0.00,VWS V14.00,2013-02-21 01:49:00,
2013-02-20 20:51:00,21.0,15.5,30.23,WNW,292,14.0,20.0,79,0.00,,OVC035,0.00,VWS V14.00,2013-02-21 01:51:00,
2013-02-20 20:52:00,21.0,15.5,30.23,WNW,292,14.0,20.0,79,0.00,,OVC035,0.00,VWS V14.00,2013-02-21 01:52:00,
2013-02-20 20:55:00,21.0,15.8,30.23,NW,315,13.0,17.0,80,0.00,,OVC035,0.00,VWS V14.00,2013-02-21 01:55:00,
2013-02-20 20:56:00,21.0,15.8,30.23,NW,315,21.0,22.0,80,0.00,,OVC035,0.00,VWS V14.00,2013-02-21 01:56:00,
2013-02-20 20:57:00,21.0,15.5,30.23,WNW,292,16.0,23.0,79,0.00,,OVC035,0.00,VWS V14.00,2013-02-21 01:57:00,
2013-02-20 21:00:00,21.0,15.5,30.23,NW,315,11.0,19.0,79,0.00,,OVC035,0.00,VWS V14.00,2013-02-21 02:00:00,
2013-02-20 21:01:00,21.0,15.5,30.23,West,270,13.0,19.0,79,0.00,,,0.00,VWS V14.00,2013-02-21 02:01:00,
2013-02-20 21:02:00,22.0,17.1,30.23,NW,315,11.0,19.0,81,0.00,,,0.00,VWS V14.00,2013-02-21 02:02:00,
2013-02-20 21:03:00,21.0,16.4,30.23,West,270,18.0,18.0,82,0.00,,,0.00,VWS V14.00,2013-02-21 02:03:00,
2013-02-20 21:05:00,22.0,16.5,30.23,NW,315,15.0,18.0,79,0.00,,,0.00,VWS V14.00,2013-02-21 02:05:00,
2013-02-20 21:06:00,22.0,17.4,30.23,NW,315,15.0,18.0,82,0.00,,,0.00,VWS V14.00,2013-02-21 02:06:00,
2013-02-20 21:07:00,21.0,16.1,30.23,NW,315,13.0,18.0,81,0.00,,,0.00,VWS V14.00,2013-02-21 02:07:00,
2013-02-20 21:09:00,22.0,17.1,30.23,NW,315,15.0,16.0,81,0.00,,,0.00,VWS V14.00,2013-02-21 02:09:00,
2013-02-20 21:11:00,22.0,16.8,30.23,NW,315,15.0,16.0,80,0.00,,,0.00,VWS V14.00,2013-02-21 02:11:00,
2013-02-20 21:13:00,22.0,16.5,30.23,NW,315,14.0,20.0,79,0.00,,,0.00,VWS V14.00,2013-02-21 02:13:00,
2013-02-20 21:15:00,22.0,16.2,30.22,NW,315,18.0,21.0,78,0.00,,,0.00,VWS V14.00,2013-02-21 02:15:00,
2013-02-20 21:17:00,22.0,16.8,30.22,NW,315,16.0,21.0,80,0.00,,,0.00,VWS V14.00,2013-02-21 02:17:00,
2013-02-20 21:18:00,22.0,16.5,30.22,NW,315,17.0,21.0,81,0.00,,,0.00,VWS V14.00,2013-02-21 02:18:00,
2013-02-20 21:20:00,22.0,16.2,30.22,NW,315,9.0,21.0,78,0.00,,,0.00,VWS V14.00,2013-02-21 02:20:00,
2013-02-20 21:22:00,22.0,15.9,30.22,NW,315,15.0,21.0,77,0.00,,,0.00,VWS V14.00,2013-02-21 02:22:00,
2013-02-20 21:23:00,22.0,16.5,30.22,NW,315,16.0,18.0,79,0.00,,,0.00,VWS V14.00,2013-02-21 02:23:00,
2013-02-20 21:25:00,22.0,16.5,30.22,NW,315,18.0,20.0,79,0.00,,,0.00,VWS V14.00,2013-02-21 02:25:00,
2013-02-20 21:28:00,22.0,16.8,30.22,NW,315,15.0,18.0,78,0.00,,,0.00,VWS V14.00,2013-02-21 02:28:00,
2013-02-20 21:29:00,22.0,16.8,30.22,NW,315,14.0,19.0,80,0.00,,,0.00,VWS V14.00,2013-02-21 02:29:00,
2013-02-20 21:30:00,22.0,17.4,30.22,NW,315,15.0,19.0,82,0.00,,,0.00,VWS V14.00,2013-02-21 02:30:00,
2013-02-20 21:31:00,22.0,16.2,30.22,NW,315,16.0,19.0,78,0.00,,,0.00,VWS V14.00,2013-02-21 02:31:00,
2013-02-20 21:34:00,22.0,16.5,30.23,NW,315,10.0,15.0,79,0.00,,,0.00,VWS V14.00,2013-02-21 02:34:00,
2013-02-20 21:35:00,22.0,15.9,30.23,NW,315,16.0,16.0,77,0.00,,,0.00,VWS V14.00,2013-02-21 02:35:00,
2013-02-20 21:37:00,22.0,15.6,30.23,NW,315,11.0,16.0,76,0.00,,,0.00,VWS V14.00,2013-02-21 02:37:00,
2013-02-20 21:39:00,22.0,16.5,30.23,WNW,292,15.0,18.0,79,0.00,,,0.00,VWS V14.00,2013-02-21 02:39:00,
2013-02-20 21:40:00,22.0,16.5,30.23,NW,315,14.0,18.0,79,0.00,,,0.00,VWS V14.00,2013-02-21 02:40:00,
2013-02-20 21:42:00,22.0,16.5,30.23,WNW,292,19.0,19.0,79,0.00,,,0.00,VWS V14.00,2013-02-21 02:42:00,
2013-02-20 21:45:00,22.0,17.1,30.23,NW,315,13.0,19.0,81,0.00,,,0.00,VWS V14.00,2013-02-21 02:45:00,
2013-02-20 21:46:00,22.0,16.5,30.23,NW,315,14.0,19.0,79,0.00,,,0.00,VWS V14.00,2013-02-21 02:46:00,
2013-02-20 21:47:00,22.0,16.8,30.23,WNW,292,10.0,13.0,80,0.00,,,0.00,VWS V14.00,2013-02-21 02:47:00,
2013-02-20 21:48:00,22.0,17.4,30.23,WNW,292,13.0,18.0,82,0.00,,,0.00,VWS V14.00,2013-02-21 02:48:00,
2013-02-20 21:51:00,22.0,17.4,30.23,NW,315,14.0,18.0,82,0.00,,,0.00,VWS V14.00,2013-02-21 02:51:00,
2013-02-20 21:52:00,22.0,16.8,30.23,WNW,292,11.0,13.0,80,0.00,,,0.00,VWS V14.00,2013-02-21 02:52:00,
2013-02-20 21:53:00,22.0,16.8,30.23,West,270,12.0,15.0,80,0.00,,,0.00,VWS V14.00,2013-02-21 02:53:00,
2013-02-20 21:54:00,22.0,16.5,30.22,NW,315,13.0,15.0,79,0.00,,,0.00,VWS V14.00,2013-02-21 02:54:00,
2013-02-20 21:57:00,22.0,15.9,30.22,WNW,292,14.0,19.0,77,0.00,,,0.00,VWS V14.00,2013-02-21 02:57:00,
2013-02-20 21:59:00,22.0,16.5,30.22,NW,315,11.0,16.0,79,0.00,,,0.00,VWS V14.00,2013-02-21 02:59:00,
2013-02-20 22:00:00,22.0,16.8,30.22,NW,315,10.0,16.0,80,0.00,,,0.00,VWS V14.00,2013-02-21 03:00:00,
2013-02-20 22:03:00,22.0,15.9,30.22,WNW,292,11.0,13.0,78,0.00,,OVC033,0.00,VWS V14.00,2013-02-21 03:03:00,
2013-02-20 22:04:00,22.0,16.5,30.23,WNW,292,12.0,16.0,79,0.00,,OVC033,0.00,VWS V14.00,2013-02-21 03:04:00,
2013-02-20 22:05:00,22.0,17.1,30.23,WNW,292,16.0,16.0,81,0.00,,OVC033,0.00,VWS V14.00,2013-02-21 03:05:00,
2013-02-20 22:08:00,21.0,15.8,30.23,NW,315,15.0,19.0,80,0.00,,OVC033,0.00,VWS V14.00,2013-02-21 03:08:00,
2013-02-20 22:09:00,22.0,17.6,30.23,NW,315,16.0,20.0,83,0.00,,OVC033,0.00,VWS V14.00,2013-02-21 03:09:00,
2013-02-20 22:10:00,21.0,16.9,30.23,NW,315,14.0,20.0,84,0.00,,OVC033,0.00,VWS V14.00,2013-02-21 03:10:00,
2013-02-20 22:13:00,22.0,17.9,30.23,WNW,292,10.0,15.0,84,0.00,,OVC033,0.00,VWS V14.00,2013-02-21 03:13:00,
2013-02-20 22:14:00,22.0,17.9,30.22,West,270,11.0,16.0,84,0.00,,OVC033,0.00,VWS V14.00,2013-02-21 03:14:00,
2013-02-20 22:15:00,21.0,17.5,30.22,WNW,292,13.0,16.0,86,0.00,,OVC033,0.00,VWS V14.00,2013-02-21 03:15:00,
2013-02-20 22:16:00,21.0,16.9,30.22,NW,315,9.0,16.0,84,0.00,,OVC033,0.00,VWS V14.00,2013-02-21 03:16:00,
2013-02-20 22:19:00,22.0,16.8,30.22,WNW,292,15.0,21.0,80,0.00,,OVC033,0.00,VWS V14.00,2013-02-21 03:19:00,
2013-02-20 22:21:00,22.0,16.5,30.22,NW,315,11.0,21.0,79,0.00,,OVC033,0.00,VWS V14.00,2013-02-21 03:21:00,
2013-02-20 22:22:00,22.0,16.5,30.22,NW,315,15.0,21.0,79,0.00,,OVC033,0.00,VWS V14.00,2013-02-21 03:22:00,
2013-02-20 22:24:00,22.0,17.1,30.22,NW,315,15.0,16.0,81,0.00,,OVC033,0.00,VWS V14.00,2013-02-21 03:24:00,
2013-02-20 22:25:00,22.0,17.1,30.22,NW,315,13.0,16.0,81,0.00,,OVC033,0.00,VWS V14.00,2013-02-21 03:25:00,
2013-02-20 22:27:00,22.0,17.4,30.22,WNW,292,13.0,20.0,82,0.00,,OVC033,0.00,VWS V14.00,2013-02-21 03:27:00,
2013-02-20 22:30:00,22.0,17.1,30.22,WNW,292,14.0,18.0,81,0.00,,OVC033,0.00,VWS V14.00,2013-02-21 03:30:00,
2013-02-20 22:31:00,22.0,17.6,30.22,NW,315,12.0,18.0,83,0.00,,OVC033,0.00,VWS V14.00,2013-02-21 03:31:00,
2013-02-20 22:32:00,22.0,17.9,30.22,NW,315,15.0,18.0,84,0.00,,OVC033,0.00,VWS V14.00,2013-02-21 03:32:00,
2013-02-20 22:37:00,22.0,18.2,30.22,WNW,292,15.0,19.0,85,0.00,,OVC033,0.00,VWS V14.00,2013-02-21 03:37:00,
2013-02-20 22:38:00,22.0,18.2,30.22,WNW,292,11.0,19.0,85,0.00,,OVC033,0.00,VWS V14.00,2013-02-21 03:38:00,
2013-02-20 22:40:00,21.0,18.0,30.22,NW,315,11.0,19.0,88,0.00,,OVC033,0.00,VWS V14.00,2013-02-21 03:40:00,
2013-02-20 22:43:00,22.0,18.2,30.22,NW,315,16.0,18.0,85,0.00,,OVC033,0.00,VWS V14.00,2013-02-21 03:43:00,
2013-02-20 22:44:00,22.0,17.9,30.22,NW,315,13.0,18.0,84,0.00,,OVC033,0.00,VWS V14.00,2013-02-21 03:44:00,
2013-02-20 22:45:00,22.0,17.9,30.22,NW,315,16.0,19.0,84,0.00,,OVC033,0.00,VWS V14.00,2013-02-21 03:45:00,
2013-02-20 22:49:00,22.0,17.6,30.22,NW,315,18.0,23.0,83,0.00,,OVC033,0.00,VWS V14.00,2013-02-21 03:49:00,
2013-02-20 22:50:00,22.0,18.2,30.22,WNW,292,11.0,23.0,85,0.00,,OVC033,0.00,VWS V14.00,2013-02-21 03:50:00,
2013-02-20 22:51:00,22.0,18.2,30.22,WNW,292,12.0,23.0,85,0.00,,OVC033,0.00,VWS V14.00,2013-02-21 03:51:00,
2013-02-20 22:52:00,22.0,17.9,30.22,WNW,292,11.0,23.0,84,0.00,,OVC033,0.00,VWS V14.00,2013-02-21 03:52:00,
2013-02-20 22:55:00,22.0,17.9,30.22,NW,315,11.0,18.0,84,0.00,,OVC033,0.00,VWS V14.00,2013-02-21 03:55:00,
2013-02-20 22:56:00,22.0,18.2,30.22,NW,315,16.0,18.0,85,0.00,,OVC033,0.00,VWS V14.00,2013-02-21 03:56:00,
2013-02-20 22:57:00,22.0,17.6,30.22,NW,315,13.0,20.0,83,0.00,,OVC033,0.00,VWS V14.00,2013-02-21 03:57:00,
2013-02-20 23:00:00,22.0,18.2,30.22,NW,315,15.0,21.0,85,0.00,,OVC033,0.00,VWS V14.00,2013-02-21 04:00:00,
2013-02-20 23:01:00,22.0,17.9,30.22,NW,315,15.0,21.0,84,0.00,,OVC033,0.00,VWS V14.00,2013-02-21 04:01:00,
2013-02-20 23:02:00,22.0,17.4,30.22,WNW,292,14.0,21.0,84,0.00,,OVC033,0.00,VWS V14.00,2013-02-21 04:02:00,
2013-02-20 23:05:00,22.0,17.9,30.23,NW,315,11.0,16.0,84,0.00,,OVC033,0.00,VWS V14.00,2013-02-21 04:05:00,
2013-02-20 23:06:00,22.0,17.9,30.23,NW,315,14.0,20.0,84,0.00,,OVC033,0.00,VWS V14.00,2013-02-21 04:06:00,
2013-02-20 23:07:00,22.0,18.7,30.23,WNW,292,14.0,20.0,87,0.00,,OVC033,0.00,VWS V14.00,2013-02-21 04:07:00,
2013-02-20 23:10:00,21.0,18.8,30.23,NW,315,15.0,21.0,91,0.00,,OVC033,0.00,VWS V14.00,2013-02-21 04:10:00,
2013-02-20 23:12:00,21.0,19.3,30.23,NW,315,16.0,21.0,93,0.00,,OVC033,0.00,VWS V14.00,2013-02-21 04:12:00,
2013-02-20 23:16:00,21.0,19.3,30.23,NW,315,15.0,19.0,93,0.00,,OVC033,0.00,VWS V14.00,2013-02-21 04:16:00,
2013-02-20 23:17:00,21.0,19.3,30.23,NW,315,18.0,20.0,93,0.00,,OVC033,0.00,VWS V14.00,2013-02-21 04:17:00,
2013-02-20 23:18:00,22.0,19.5,30.23,NW,315,16.0,19.0,90,0.00,,OVC033,0.00,VWS V14.00,2013-02-21 04:18:00,
2013-02-20 23:20:00,22.0,19.5,30.23,WNW,292,13.0,21.0,90,0.00,,OVC033,0.00,VWS V14.00,2013-02-21 04:20:00,
2013-02-20 23:22:00,22.0,19.5,30.23,NW,315,14.0,21.0,90,0.00,,,0.00,VWS V14.00,2013-02-21 04:22:00,
2013-02-20 23:24:00,22.0,19.5,30.22,NW,315,16.0,18.0,90,0.00,,,0.00,VWS V14.00,2013-02-21 04:24:00,
2013-02-20 23:25:00,22.0,19.5,30.22,NW,315,17.0,20.0,90,0.00,,,0.00,VWS V14.00,2013-02-21 04:25:00,
2013-02-20 23:27:00,22.0,20.0,30.22,NW,315,12.0,20.0,92,0.00,,,0.00,VWS V14.00,2013-02-21 04:27:00,
2013-02-20 23:28:00,22.0,20.0,30.22,NW,315,15.0,19.0,92,0.00,,,0.00,VWS V14.00,2013-02-21 04:28:00,
2013-02-20 23:30:00,22.0,20.0,30.22,NW,315,14.0,19.0,92,0.00,,,0.00,VWS V14.00,2013-02-21 04:30:00,
2013-02-20 23:32:00,22.0,19.8,30.22,NW,315,18.0,19.0,91,0.00,,,0.00,VWS V14.00,2013-02-21 04:32:00,
2013-02-20 23:34:00,22.0,19.8,30.22,NW,315,16.0,18.0,91,0.00,,,0.00,VWS V14.00,2013-02-21 04:34:00,
2013-02-20 23:35:00,22.0,19.3,30.22,WNW,292,17.0,21.0,89,0.00,,,0.00,VWS V14.00,2013-02-21 04:35:00,
2013-02-20 23:37:00,22.0,18.2,30.22,WNW,292,13.0,21.0,85,0.00,,,0.00,VWS V14.00,2013-02-21 04:37:00,
2013-02-20 23:38:00,22.0,18.7,30.22,WNW,292,12.0,14.0,87,0.00,,,0.00,VWS V14.00,2013-02-21 04:38:00,
2013-02-20 23:39:00,22.0,19.0,30.22,NW,315,19.0,19.0,88,0.00,,,0.00,VWS V14.00,2013-02-21 04:39:00,
2013-02-20 23:41:00,22.0,19.5,30.22,NW,315,16.0,20.0,90,0.00,,,0.00,VWS V14.00,2013-02-21 04:41:00,
2013-02-20 23:43:00,22.0,20.0,30.22,WNW,292,13.0,18.0,92,0.00,,,0.00,VWS V14.00,2013-02-21 04:43:00,
2013-02-20 23:45:00,22.0,19.5,30.22,NW,315,20.0,20.0,90,0.00,,,0.00,VWS V14.00,2013-02-21 04:45:00,
2013-02-20 23:46:00,22.0,20.0,30.22,NW,315,13.0,20.0,92,0.00,,,0.00,VWS V14.00,2013-02-21 04:46:00,
2013-02-20 23:48:00,22.0,20.0,30.22,NW,315,11.0,18.0,92,0.00,,,0.00,VWS V14.00,2013-02-21 04:48:00,
2013-02-20 23:49:00,22.0,20.0,30.22,NW,315,16.0,18.0,92,0.00,,,0.00,VWS V14.00,2013-02-21 04:49:00,
2013-02-20 23:50:00,22.0,20.0,30.22,WNW,292,18.0,18.0,92,0.00,,,0.00,VWS V14.00,2013-02-21 04:50:00,
2013-02-20 23:51:00,22.0,19.5,30.22,WNW,292,15.0,18.0,90,0.00,,,0.00,VWS V14.00,2013-02-21 04:51:00,
2013-02-20 23:54:00,22.0,18.7,30.22,WNW,292,16.0,18.0,87,0.00,,,0.00,VWS V14.00,2013-02-21 04:54:00,
2013-02-20 23:56:00,22.0,18.7,30.22,WNW,292,16.0,18.0,87,0.00,,,0.00,VWS V14.00,2013-02-21 04:56:00,
2013-02-20 23:57:00,22.0,18.7,30.22,NW,315,13.0,20.0,87,0.00,,,0.00,VWS V14.00,2013-02-21 04:57:00,